M I D A S
Marine Information and Data Acquisition System
Tripno 1205 of the Zeeleeuw from 2007-01-24 08:53:16 to 2007-01-24 15:26:34
Back to CruiseResearch ActivitiesStationsMapUnderway DataData graphs

EquipmentUnitsComment
TimeDGPSUTC
LatitudeDGPSDM.mWGS84
LongitudeDGPSDM.mWGS84
TemperatureSBE03/SBE38deg celciusITS90
ConductivitySBE21S/mITS90
SalinitySBE21 Practical Salinity Units
ChlorophylAChelsea fluorimeterg/lCalibrated in Aceton
Missing or incorrect values are displayed as -999
Sea surface data collected by the RV Zeeleeuw from 2007-01-24 08:08:57 to 2007-01-24 15:40:08
                                                                                    Next 1000 lines
Time Latitude Longitude Temperature Conductivity Salinity ChlorophylA
2007-01-24 08:09:07 51°13.599 2°56.094 15.3947 1.346623 9.216654 -2.871232
2007-01-24 08:09:12 51°13.599 2°56.094 15.396 1.346623 9.216654 -2.871232
2007-01-24 08:09:17 51°13.599 2°56.093 15.4005 1.346623 9.216654 -2.871232
2007-01-24 08:09:21 51°13.599 2°56.093 15.4004 1.346623 9.216654 -2.871232
2007-01-24 08:09:27 51°13.599 2°56.095 15.4129 1.346623 9.216654 -2.871232
2007-01-24 08:09:32 51°13.599 2°56.095 15.4235 1.346623 9.216454 -2.871232
2007-01-24 08:09:37 51°13.599 2°56.094 15.433 1.346623 9.216454 -2.871232
2007-01-24 08:09:42 51°13.599 2°56.095 15.4312 1.346623 9.216454 -2.871232
2007-01-24 08:09:47 51°13.599 2°56.093 15.4122 1.346623 9.216454 -2.871232
2007-01-24 08:09:52 51°13.598 2°56.092 15.4125 1.346726 9.217218 -2.871232
2007-01-24 08:09:57 51°13.598 2°56.091 15.4182 1.346726 9.217018 -2.871232
2007-01-24 08:10:02 51°13.598 2°56.09 15.4215 1.346726 9.217218 -2.871232
2007-01-24 08:10:06 51°13.598 2°56.09 15.4228 1.346726 9.217218 -2.871232
2007-01-24 08:10:12 51°13.598 2°56.09 15.4227 1.346726 9.217018 -2.871232
2007-01-24 08:10:17 51°13.598 2°56.091 15.4245 1.346726 9.217018 -2.871232
2007-01-24 08:10:22 51°13.598 2°56.091 15.4284 1.346726 9.217018 -2.871232
2007-01-24 08:10:26 51°13.599 2°56.091 15.4326 1.346726 9.217018 -2.871232
2007-01-24 08:10:32 51°13.599 2°56.092 15.431 1.346726 9.217018 -2.871232
2007-01-24 08:10:37 51°13.599 2°56.094 15.4214 1.346726 9.217018 -2.871232
2007-01-24 08:10:42 51°13.599 2°56.093 15.4157 1.346726 9.216818 -2.871232
2007-01-24 08:10:47 51°13.599 2°56.092 15.4142 1.346726 9.216818 -2.871232
2007-01-24 08:10:52 51°13.598 2°56.09 15.423 1.346829 9.217581 -2.871232
2007-01-24 08:10:56 51°13.598 2°56.088 15.4356 1.346829 9.217581 -2.871232
2007-01-24 08:11:02 51°13.598 2°56.086 15.4419 1.346829 9.217581 -2.871232
2007-01-24 08:11:07 51°13.598 2°56.086 15.4461 1.346829 9.217581 -2.871232
2007-01-24 08:11:12 51°13.598 2°56.087 15.4506 1.346829 9.217382 -2.871232
2007-01-24 08:11:16 51°13.598 2°56.088 15.4555 1.346829 9.217382 -2.871232
2007-01-24 08:11:22 51°13.598 2°56.088 15.4555 1.346829 9.217581 -2.871232
2007-01-24 08:11:27 51°13.598 2°56.089 15.4564 1.346829 9.217382 -2.871232
2007-01-24 08:11:32 51°13.598 2°56.09 15.4558 1.346829 9.217382 -2.871232
2007-01-24 08:11:36 51°13.598 2°56.09 15.4507 1.346829 9.217382 -2.871232
2007-01-24 08:11:41 51°13.598 2°56.091 15.4485 1.346829 9.217182 -2.871232
2007-01-24 08:11:47 51°13.599 2°56.092 15.4549 1.346829 9.217182 -2.871232
2007-01-24 08:11:52 51°13.599 2°56.095 15.4603 1.346829 9.217182 -2.871232
2007-01-24 08:11:57 51°13.599 2°56.096 15.4563 1.346932 9.217945 -2.871232
2007-01-24 08:12:01 51°13.599 2°56.096 15.4611 1.346932 9.217746 -2.871232
2007-01-24 08:12:07 51°13.599 2°56.095 15.4657 1.346932 9.217746 -2.871232
2007-01-24 08:12:12 51°13.599 2°56.093 15.4704 1.346932 9.217746 -2.871232
2007-01-24 08:12:17 51°13.598 2°56.091 15.4742 1.346932 9.217746 -2.871232
2007-01-24 08:12:22 51°13.598 2°56.091 15.4739 1.346932 9.217746 -2.871232
2007-01-24 08:12:26 51°13.598 2°56.091 15.4723 1.346932 9.217746 -2.871232
2007-01-24 08:12:32 51°13.598 2°56.091 15.4723 1.346932 9.217746 -2.871232
2007-01-24 08:12:37 51°13.598 2°56.092 15.4729 1.346932 9.217746 -2.871232
2007-01-24 08:12:41 51°13.598 2°56.092 15.4785 1.346932 9.217546 -2.871232
2007-01-24 08:12:46 51°13.598 2°56.092 15.4785 1.346932 9.217546 -2.871232
2007-01-24 08:12:51 51°13.598 2°56.092 15.4786 1.346932 9.217546 -2.871232
2007-01-24 08:12:56 51°13.598 2°56.092 15.4796 1.347035 9.218309 -2.871232
2007-01-24 08:13:01 51°13.598 2°56.092 15.4807 1.347035 9.218309 -2.871232
2007-01-24 08:13:07 51°13.598 2°56.092 15.4823 1.347035 9.218309 -2.871232
2007-01-24 08:13:12 51°13.598 2°56.093 15.4842 1.347035 9.218109 -2.871232
2007-01-24 08:13:17 51°13.598 2°56.093 15.4864 1.347035 9.218109 -2.871232
2007-01-24 08:13:22 51°13.598 2°56.093 15.4881 1.347035 9.218109 -2.871232
2007-01-24 08:13:27 51°13.598 2°56.093 15.491 1.347035 9.218109 -2.871232
2007-01-24 08:13:32 51°13.598 2°56.093 15.4937 1.347035 9.218109 -2.871232
2007-01-24 08:13:37 51°13.598 2°56.093 15.4955 1.347035 9.218109 -2.871232
2007-01-24 08:13:42 51°13.598 2°56.093 15.4988 1.347035 9.218109 -2.871232
2007-01-24 08:13:47 51°13.598 2°56.093 15.5004 1.347035 9.21791 -2.871232
2007-01-24 08:13:52 51°13.598 2°56.093 15.5013 1.347035 9.21791 -2.871232
2007-01-24 08:13:57 51°13.598 2°56.093 15.4898 1.347035 9.21791 -2.871232
2007-01-24 08:14:02 51°13.598 2°56.093 15.4866 1.347138 9.218673 -2.871232
2007-01-24 08:14:07 51°13.598 2°56.093 15.5041 1.347138 9.218673 -2.871232
2007-01-24 08:14:12 51°13.597 2°56.093 15.5132 1.347138 9.218673 -2.871232
2007-01-24 08:14:17 51°13.597 2°56.092 15.5169 1.347138 9.218673 -2.871232
2007-01-24 08:14:21 51°13.597 2°56.092 15.522 1.347138 9.218673 -2.871232
2007-01-24 08:14:26 51°13.597 2°56.092 15.5222 1.347138 9.218473 -2.871232
2007-01-24 08:14:32 51°13.597 2°56.092 15.5214 1.347138 9.218473 -2.871232
2007-01-24 08:14:37 51°13.598 2°56.092 15.5236 1.347138 9.218473 -2.871232
2007-01-24 08:14:42 51°13.598 2°56.092 15.526 1.347138 9.218473 -2.871232
2007-01-24 08:14:46 51°13.598 2°56.092 15.5259 1.347138 9.218473 -2.871232
2007-01-24 08:14:52 51°13.597 2°56.092 15.5251 1.347138 9.218473 -2.871232
2007-01-24 08:14:57 51°13.597 2°56.093 15.5251 1.347138 9.218273 -2.871232
2007-01-24 08:15:02 51°13.597 2°56.093 15.5223 1.347138 9.218273 -2.871232
2007-01-24 08:15:07 51°13.597 2°56.093 15.5221 1.347138 9.218273 -2.871232
2007-01-24 08:15:11 51°13.597 2°56.093 15.5238 1.347138 9.218273 -2.871232
2007-01-24 08:15:17 51°13.597 2°56.093 15.5378 1.347241 9.219037 -2.871232
2007-01-24 08:15:22 51°13.598 2°56.093 15.5405 1.347241 9.218837 -2.871232
2007-01-24 08:15:26 51°13.598 2°56.093 15.5371 1.347241 9.219037 -2.871232
2007-01-24 08:15:31 51°13.598 2°56.093 15.5385 1.347241 9.219037 -2.871232
2007-01-24 08:15:37 51°13.598 2°56.093 15.5371 1.347241 9.218837 -2.871232
2007-01-24 08:15:42 51°13.598 2°56.093 15.5398 1.347241 9.218837 -2.871232
2007-01-24 08:15:47 51°13.598 2°56.093 15.544 1.347241 9.218837 -2.871232
2007-01-24 08:15:51 51°13.598 2°56.093 15.5473 1.347241 9.218837 -2.871232
2007-01-24 08:15:57 51°13.598 2°56.094 15.5526 1.347241 9.218837 -2.871232
2007-01-24 08:16:02 51°13.598 2°56.094 15.5475 1.347241 9.218637 -2.871232
2007-01-24 08:16:07 51°13.598 2°56.095 15.5488 1.347241 9.218637 -2.871232
2007-01-24 08:16:12 51°13.597 2°56.095 15.5687 1.347241 9.218637 -2.871232
2007-01-24 08:16:17 51°13.597 2°56.094 15.5765 1.347241 9.218637 -2.871232
2007-01-24 08:16:21 51°13.597 2°56.094 15.6306 1.347241 9.218637 -2.871232
2007-01-24 08:16:27 51°13.597 2°56.094 15.6745 1.347344 9.219401 -2.871232
2007-01-24 08:16:32 51°13.598 2°56.094 15.6844 1.347344 9.219401 -2.871232
2007-01-24 08:16:37 51°13.597 2°56.095 15.6858 1.347344 9.219401 -2.871232
2007-01-24 08:16:41 51°13.597 2°56.095 15.6435 1.347344 9.219401 -2.871232
2007-01-24 08:16:46 51°13.597 2°56.096 15.6236 1.347344 9.219401 -2.871232
2007-01-24 08:16:52 51°13.596 2°56.096 15.6116 1.347344 9.219201 -2.871232
2007-01-24 08:16:57 51°13.596 2°56.097 15.6007 1.347344 9.219201 -2.871232
2007-01-24 08:17:02 51°13.596 2°56.097 15.5963 1.347344 9.219201 -2.871232
2007-01-24 08:17:06 51°13.596 2°56.097 15.6147 1.347344 9.219201 -2.871232
2007-01-24 08:17:11 51°13.596 2°56.097 15.6098 1.347344 9.219001 -2.871232
2007-01-24 08:17:17 51°13.596 2°56.097 15.6087 1.347344 9.219001 -2.871232
2007-01-24 08:17:22 51°13.596 2°56.097 15.6094 1.347344 9.219001 -2.871232
2007-01-24 08:17:27 51°13.596 2°56.098 15.6127 1.347344 9.219001 -2.871232
2007-01-24 08:17:31 51°13.596 2°56.098 15.6177 1.347447 9.219765 -2.871232
2007-01-24 08:17:37 51°13.596 2°56.098 15.6075 1.347344 9.219001 -2.871232
2007-01-24 08:17:42 51°13.596 2°56.097 15.5977 1.347344 9.219001 -2.871232
2007-01-24 08:17:47 51°13.596 2°56.097 15.5894 1.347447 9.219765 -2.871232
2007-01-24 08:17:51 51°13.597 2°56.097 15.5862 1.347447 9.219765 -2.871232
2007-01-24 08:17:57 51°13.597 2°56.097 15.592 1.347447 9.219565 -2.871232
2007-01-24 08:18:02 51°13.597 2°56.097 15.6184 1.347447 9.219565 -2.871232
2007-01-24 08:18:07 51°13.597 2°56.097 15.6253 1.347447 9.219565 -2.871232
2007-01-24 08:18:12 51°13.597 2°56.097 15.6237 1.347447 9.219565 -2.871232
2007-01-24 08:18:17 51°13.597 2°56.097 15.5937 1.347447 9.219565 -2.871232
2007-01-24 08:18:21 51°13.597 2°56.097 15.5695 1.347447 9.219565 -2.871232
2007-01-24 08:18:27 51°13.597 2°56.097 15.5738 1.347447 9.219565 -2.871232
2007-01-24 08:18:31 51°13.597 2°56.097 15.5824 1.347447 9.219565 -2.871232
2007-01-24 08:18:37 51°13.597 2°56.097 15.5919 1.347447 9.219565 -2.871232
2007-01-24 08:18:42 51°13.598 2°56.094 15.5991 1.347447 9.219365 -2.871232
2007-01-24 08:18:47 51°13.598 2°56.093 15.61 1.347447 9.219365 -2.871232
2007-01-24 08:18:52 51°13.599 2°56.093 15.6115 1.347447 9.219365 -2.871232
2007-01-24 08:18:57 51°13.599 2°56.093 15.6116 1.347447 9.219365 -2.871232
2007-01-24 08:19:01 51°13.599 2°56.093 15.6066 1.347551 9.220128 -2.871232
2007-01-24 08:19:07 51°13.599 2°56.093 15.6122 1.347551 9.220128 -2.871232
2007-01-24 08:19:12 51°13.599 2°56.092 15.6311 1.347551 9.220128 -2.871232
2007-01-24 08:19:17 51°13.599 2°56.092 15.6249 1.347551 9.219929 -2.871232
2007-01-24 08:19:22 51°13.599 2°56.092 15.6099 1.347551 9.219929 -2.871232
2007-01-24 08:19:26 51°13.599 2°56.093 15.6081 1.347551 9.219929 -2.871232
2007-01-24 08:19:32 51°13.599 2°56.093 15.6232 1.347551 9.219929 -2.871232
2007-01-24 08:19:37 51°13.599 2°56.093 15.6246 1.347551 9.219929 -2.871232
2007-01-24 08:19:42 51°13.599 2°56.093 15.6307 1.347551 9.219929 -2.871232
2007-01-24 08:19:47 51°13.599 2°56.093 15.6399 1.347551 9.219729 -2.871232
2007-01-24 08:19:51 51°13.599 2°56.093 15.6447 1.347551 9.219729 -2.871232
2007-01-24 08:19:57 51°13.6 2°56.092 15.6505 1.347551 9.219729 -2.871232
2007-01-24 08:20:02 51°13.6 2°56.092 15.6525 1.347551 9.219729 -2.871232
2007-01-24 08:20:07 51°13.6 2°56.093 15.6508 1.347551 9.219729 -2.871232
2007-01-24 08:20:11 51°13.6 2°56.093 15.6561 1.347551 9.219729 -2.871232
2007-01-24 08:20:17 51°13.599 2°56.093 15.661 1.347654 9.220492 -2.871232
2007-01-24 08:20:22 51°13.599 2°56.093 15.6632 1.347654 9.220492 -2.871232
2007-01-24 08:20:27 51°13.6 2°56.093 15.6681 1.347654 9.220492 -2.871232
2007-01-24 08:20:32 51°13.6 2°56.094 15.6698 1.347654 9.220292 -2.871232
2007-01-24 08:20:37 51°13.6 2°56.095 15.67 1.347654 9.220292 -2.871232
2007-01-24 08:20:42 51°13.6 2°56.094 15.6664 1.347654 9.220292 -2.871232
2007-01-24 08:20:47 51°13.6 2°56.093 15.6627 1.347654 9.220292 -2.871232
2007-01-24 08:20:52 51°13.6 2°56.092 15.6588 1.347654 9.220292 -2.871232
2007-01-24 08:20:57 51°13.6 2°56.093 15.6493 1.347654 9.220292 -2.871232
2007-01-24 08:21:02 51°13.6 2°56.094 15.6669 1.347654 9.220292 -2.871232
2007-01-24 08:21:07 51°13.6 2°56.094 15.6837 1.347654 9.220292 -2.871232
2007-01-24 08:21:12 51°13.599 2°56.094 15.6884 1.347654 9.220292 -2.871232
2007-01-24 08:21:17 51°13.599 2°56.094 15.6887 1.347654 9.220093 -2.871232
2007-01-24 08:21:22 51°13.599 2°56.094 15.6876 1.347654 9.220093 -2.871232
2007-01-24 08:21:26 51°13.599 2°56.095 15.6837 1.347654 9.220093 -2.871232
2007-01-24 08:21:32 51°13.599 2°56.094 15.6785 1.347654 9.220093 -2.871232
2007-01-24 08:21:37 51°13.599 2°56.092 15.6811 1.347654 9.220093 -2.871232
2007-01-24 08:21:42 51°13.599 2°56.092 15.688 1.347654 9.220093 -2.871232
2007-01-24 08:21:46 51°13.599 2°56.093 15.6928 1.347654 9.220093 -2.871232
2007-01-24 08:21:52 51°13.599 2°56.092 15.6923 1.347757 9.220856 -2.871232
2007-01-24 08:21:57 51°13.6 2°56.091 15.6827 1.347757 9.220656 -2.871232
2007-01-24 08:22:02 51°13.6 2°56.091 15.6726 1.347757 9.220656 -2.871232
2007-01-24 08:22:06 51°13.6 2°56.091 15.6774 1.347757 9.220656 -2.871232
2007-01-24 08:22:11 51°13.601 2°56.091 15.6844 1.347757 9.220656 -2.871232
2007-01-24 08:22:17 51°13.601 2°56.091 15.6971 1.347757 9.220656 -2.871232
2007-01-24 08:22:22 51°13.601 2°56.091 15.6845 1.347757 9.220656 -2.871232
2007-01-24 08:22:27 51°13.601 2°56.091 15.6886 1.347757 9.220656 -2.871232
2007-01-24 08:22:31 51°13.601 2°56.091 15.6913 1.347757 9.220456 -2.871232
2007-01-24 08:22:37 51°13.601 2°56.091 15.6956 1.347757 9.220456 -2.871232
2007-01-24 08:22:42 51°13.601 2°56.09 15.693 1.347757 9.220456 -2.871232
2007-01-24 08:22:47 51°13.601 2°56.091 15.6972 1.347757 9.220456 -2.871232
2007-01-24 08:22:52 51°13.601 2°56.091 15.6998 1.347757 9.220456 -2.871232
2007-01-24 08:22:57 51°13.601 2°56.091 15.7039 1.347757 9.220456 -2.871232
2007-01-24 08:23:01 51°13.601 2°56.091 15.7047 1.347757 9.220456 -2.871232
2007-01-24 08:23:07 51°13.6 2°56.092 15.7071 1.347757 9.220456 -2.871232
2007-01-24 08:23:12 51°13.6 2°56.092 15.7004 1.347757 9.220456 -2.871232
2007-01-24 08:23:17 51°13.601 2°56.091 15.6933 1.34786 9.22122 -2.871232
2007-01-24 08:23:21 51°13.601 2°56.091 15.6966 1.34786 9.22102 -2.871232
2007-01-24 08:23:27 51°13.601 2°56.091 15.7043 1.34786 9.22102 -2.871232
2007-01-24 08:23:32 51°13.601 2°56.091 15.7042 1.34786 9.22102 -2.871232
2007-01-24 08:23:37 51°13.601 2°56.091 15.7067 1.34786 9.22102 -2.871232
2007-01-24 08:23:42 51°13.601 2°56.091 15.7156 1.34786 9.22102 -2.871232
2007-01-24 08:23:46 51°13.601 2°56.091 15.7204 1.34786 9.22102 -2.871232
2007-01-24 08:23:52 51°13.601 2°56.091 15.7225 1.34786 9.22102 -2.871232
2007-01-24 08:23:57 51°13.6 2°56.095 15.7228 1.34786 9.22102 -2.871232
2007-01-24 08:24:02 51°13.599 2°56.096 15.7262 1.34786 9.22102 -2.871232
2007-01-24 08:24:07 51°13.598 2°56.097 15.7311 1.34786 9.22102 -2.871232
2007-01-24 08:24:11 51°13.598 2°56.097 15.7337 1.34786 9.22102 -2.871232
2007-01-24 08:24:17 51°13.597 2°56.098 15.7369 1.34786 9.22082 -2.871232
2007-01-24 08:24:22 51°13.598 2°56.095 15.7393 1.34786 9.22082 -2.871232
2007-01-24 08:24:27 51°13.599 2°56.093 15.7384 1.34786 9.22082 -2.871232
2007-01-24 08:24:31 51°13.6 2°56.092 15.7402 1.34786 9.22082 -2.871232
2007-01-24 08:24:37 51°13.601 2°56.091 15.7451 1.34786 9.22082 -2.871232
2007-01-24 08:24:42 51°13.601 2°56.091 15.7497 1.34786 9.22082 -2.871232
2007-01-24 08:24:47 51°13.601 2°56.092 15.7501 1.34786 9.22082 -2.871232
2007-01-24 08:24:52 51°13.601 2°56.092 15.7485 1.34786 9.22082 -2.871232
2007-01-24 08:24:57 51°13.601 2°56.092 15.7504 1.347963 9.221583 -2.871232
2007-01-24 08:25:02 51°13.601 2°56.092 15.7503 1.347963 9.221583 -2.871232
2007-01-24 08:25:07 51°13.601 2°56.092 15.7529 1.347963 9.221583 -2.871232
2007-01-24 08:25:12 51°13.601 2°56.092 15.7583 1.347963 9.221384 -2.871232
2007-01-24 08:25:17 51°13.601 2°56.092 15.7646 1.347963 9.221384 -2.871232
2007-01-24 08:25:21 51°13.601 2°56.092 15.7661 1.347963 9.221384 -2.871232
2007-01-24 08:25:27 51°13.601 2°56.092 15.7596 1.347963 9.221384 -2.871232
2007-01-24 08:25:32 51°13.6 2°56.092 15.7559 1.347963 9.221384 -2.871232
2007-01-24 08:25:37 51°13.6 2°56.092 15.7582 1.347963 9.221384 -2.871232
2007-01-24 08:25:42 51°13.6 2°56.092 15.7611 1.347963 9.221384 -2.871232
2007-01-24 08:25:47 51°13.6 2°56.092 15.7664 1.347963 9.221384 -2.871232
2007-01-24 08:25:52 51°13.6 2°56.092 15.7612 1.347963 9.221384 -2.871232
2007-01-24 08:25:57 51°13.6 2°56.092 15.7505 1.347963 9.221184 -2.871232
2007-01-24 08:26:02 51°13.6 2°56.092 15.7489 1.347963 9.221184 -2.871232
2007-01-24 08:26:06 51°13.6 2°56.092 15.7652 1.347963 9.221184 -2.871232
2007-01-24 08:26:12 51°13.6 2°56.092 15.7674 1.347963 9.221184 -2.871232
2007-01-24 08:26:17 51°13.6 2°56.093 15.7749 1.347963 9.221184 -2.871232
2007-01-24 08:26:22 51°13.6 2°56.093 15.7817 1.347963 9.221184 -2.871232
2007-01-24 08:26:26 51°13.6 2°56.093 15.7827 1.347963 9.221184 -2.871232
2007-01-24 08:26:31 51°13.6 2°56.092 15.7857 1.348066 9.221947 -2.871232
2007-01-24 08:26:37 51°13.6 2°56.092 15.7868 1.348066 9.221947 -2.871232
2007-01-24 08:26:42 51°13.6 2°56.093 15.7877 1.348066 9.221947 -2.871232
2007-01-24 08:26:47 51°13.6 2°56.093 15.7805 1.348066 9.221747 -2.871232
2007-01-24 08:26:51 51°13.6 2°56.093 15.7796 1.348066 9.221947 -2.871232
2007-01-24 08:26:57 51°13.6 2°56.093 15.7747 1.348066 9.221747 -2.871232
2007-01-24 08:27:02 51°13.6 2°56.093 15.7797 1.348066 9.221747 -2.871232
2007-01-24 08:27:07 51°13.6 2°56.093 15.7828 1.348066 9.221747 -2.871232
2007-01-24 08:27:11 51°13.6 2°56.093 15.7857 1.348066 9.221747 -2.871232
2007-01-24 08:27:17 51°13.6 2°56.093 15.788 1.348066 9.221747 -2.871232
2007-01-24 08:27:21 51°13.6 2°56.093 15.7888 1.348066 9.221747 -2.871232
2007-01-24 08:27:27 51°13.6 2°56.093 15.7892 1.348066 9.221747 -2.871232
2007-01-24 08:27:32 51°13.6 2°56.093 15.796 1.348066 9.221747 -2.871232
2007-01-24 08:27:37 51°13.6 2°56.093 15.8014 1.348066 9.221747 -2.871232
2007-01-24 08:27:41 51°13.6 2°56.093 15.8053 1.348066 9.221747 -2.871232
2007-01-24 08:27:47 51°13.599 2°56.095 15.8059 1.348066 9.221547 -2.871232
2007-01-24 08:27:52 51°13.599 2°56.094 15.8048 1.348066 9.221747 -2.871232
2007-01-24 08:27:57 51°13.6 2°56.093 15.8036 1.348066 9.221747 -2.871232
2007-01-24 08:28:02 51°13.6 2°56.093 15.7979 1.348066 9.221547 -2.871232
2007-01-24 08:28:06 51°13.6 2°56.093 15.8032 1.348066 9.221547 -2.871232
2007-01-24 08:28:12 51°13.6 2°56.093 15.8077 1.348066 9.221547 -2.871232
2007-01-24 08:28:17 51°13.6 2°56.093 15.8099 1.348066 9.221547 -2.871232
2007-01-24 08:28:22 51°13.6 2°56.093 15.8169 1.348066 9.221547 -2.871232
2007-01-24 08:28:27 51°13.6 2°56.093 15.8202 1.348066 9.221547 -2.871232
2007-01-24 08:28:32 51°13.6 2°56.093 15.8124 1.348169 9.222111 -2.871232
2007-01-24 08:28:37 51°13.599 2°56.093 15.8092 1.348169 9.222111 -2.871232
2007-01-24 08:28:42 51°13.6 2°56.093 15.8136 1.348169 9.222311 -2.871232
2007-01-24 08:28:46 51°13.6 2°56.093 15.8004 1.348169 9.222311 -2.871232
2007-01-24 08:28:51 51°13.6 2°56.093 15.8119 1.348169 9.222311 -2.871232
2007-01-24 08:28:57 51°13.6 2°56.093 15.823 1.348169 9.222111 -2.871232
2007-01-24 08:29:02 51°13.599 2°56.093 15.8271 1.348169 9.222311 -2.871232
2007-01-24 08:29:07 51°13.599 2°56.093 15.832 1.348169 9.222311 -2.871232
2007-01-24 08:29:11 51°13.599 2°56.094 15.8351 1.348169 9.222311 -2.871232
2007-01-24 08:29:17 51°13.599 2°56.094 15.8393 1.348169 9.222111 -2.871232
2007-01-24 08:29:22 51°13.599 2°56.094 15.8448 1.348169 9.222111 -2.871232
2007-01-24 08:29:27 51°13.599 2°56.094 15.84 1.348169 9.222111 -2.871232
2007-01-24 08:29:32 51°13.599 2°56.094 15.8358 1.348169 9.222111 -2.871232
2007-01-24 08:29:37 51°13.599 2°56.094 15.8349 1.348169 9.222111 -2.871232
2007-01-24 08:29:42 51°13.599 2°56.094 15.8394 1.348169 9.222111 -2.871232
2007-01-24 08:29:47 51°13.599 2°56.094 15.8401 1.348169 9.222111 -2.871232
2007-01-24 08:29:52 51°13.599 2°56.094 15.8456 1.348169 9.222111 -2.871232
2007-01-24 08:29:57 51°13.599 2°56.094 15.8603 1.348169 9.222111 -2.871232
2007-01-24 08:30:02 51°13.599 2°56.094 15.8608 1.348169 9.222111 -2.871232
2007-01-24 08:30:07 51°13.599 2°56.093 15.8579 1.348169 9.222111 -2.871232
2007-01-24 08:30:12 51°13.599 2°56.093 15.8588 1.348169 9.222111 -2.871232
2007-01-24 08:30:17 51°13.599 2°56.093 15.8598 1.348169 9.222111 -2.871232
2007-01-24 08:30:22 51°13.599 2°56.093 15.864 1.348169 9.221911 -2.871232
2007-01-24 08:30:27 51°13.599 2°56.093 15.8677 1.348169 9.221911 -2.871232
2007-01-24 08:30:32 51°13.599 2°56.093 15.8688 1.348169 9.221911 -2.871232
2007-01-24 08:30:37 51°13.599 2°56.093 15.8716 1.348169 9.221911 -2.871232
2007-01-24 08:30:42 51°13.599 2°56.093 15.8726 1.348169 9.221911 -2.871232
2007-01-24 08:30:46 51°13.599 2°56.093 15.8752 1.348169 9.221911 -2.871232
2007-01-24 08:30:51 51°13.599 2°56.094 15.8794 1.348272 9.222674 -2.871232
2007-01-24 08:30:57 51°13.599 2°56.094 15.8847 1.348272 9.222674 -2.871232
2007-01-24 08:31:02 51°13.599 2°56.094 15.8884 1.348272 9.222674 -2.871232
2007-01-24 08:31:06 51°13.599 2°56.094 15.8908 1.348272 9.222674 -2.871232
2007-01-24 08:31:11 51°13.599 2°56.094 15.8938 1.348272 9.222674 -2.871232
2007-01-24 08:31:17 51°13.599 2°56.094 15.8969 1.348272 9.222674 -2.871232
2007-01-24 08:31:22 51°13.599 2°56.094 15.8992 1.348272 9.222674 -2.871232
2007-01-24 08:31:27 51°13.599 2°56.094 15.901 1.348272 9.222674 -2.871232
2007-01-24 08:31:31 51°13.599 2°56.094 15.901 1.348272 9.222674 -2.871232
2007-01-24 08:31:37 51°13.599 2°56.094 15.9011 1.348272 9.222674 -2.871232
2007-01-24 08:31:42 51°13.599 2°56.094 15.9048 1.348272 9.222674 -2.871232
2007-01-24 08:31:47 51°13.599 2°56.094 15.9099 1.348272 9.222674 -2.871232
2007-01-24 08:31:52 51°13.6 2°56.093 15.9156 1.348272 9.222474 -2.871232
2007-01-24 08:31:57 51°13.6 2°56.093 15.9101 1.348272 9.222474 -2.871232
2007-01-24 08:32:02 51°13.6 2°56.093 15.91 1.348272 9.222674 -2.871232
2007-01-24 08:32:07 51°13.6 2°56.093 15.917 1.348272 9.222674 -2.871232
2007-01-24 08:32:12 51°13.6 2°56.092 15.921 1.348272 9.222474 -2.871232
2007-01-24 08:32:17 51°13.6 2°56.092 15.9305 1.348272 9.222474 -2.871232
2007-01-24 08:32:22 51°13.6 2°56.092 15.9229 1.348272 9.222474 -2.871232
2007-01-24 08:32:27 51°13.6 2°56.092 15.9195 1.348272 9.222474 -2.871232
2007-01-24 08:32:32 51°13.6 2°56.092 15.9248 1.348272 9.222474 -2.871232
2007-01-24 08:32:37 51°13.6 2°56.092 15.9302 1.348272 9.222474 -2.871232
2007-01-24 08:32:42 51°13.6 2°56.092 15.9343 1.348272 9.222474 -2.871232
2007-01-24 08:32:46 51°13.6 2°56.092 15.9399 1.348272 9.222474 -2.871232
2007-01-24 08:32:52 51°13.6 2°56.092 15.9407 1.348272 9.222474 -2.871232
2007-01-24 08:32:57 51°13.6 2°56.092 15.9422 1.348272 9.222474 -2.871232
2007-01-24 08:33:02 51°13.6 2°56.092 15.9403 1.348272 9.222474 -2.871232
2007-01-24 08:33:06 51°13.6 2°56.092 15.9353 1.348272 9.222474 -2.871232
2007-01-24 08:33:12 51°13.6 2°56.092 15.9333 1.348272 9.222474 -2.871232
2007-01-24 08:33:17 51°13.6 2°56.091 15.9333 1.348272 9.222474 -2.871232
2007-01-24 08:33:22 51°13.6 2°56.091 15.9495 1.348272 9.222275 -2.871232
2007-01-24 08:33:27 51°13.6 2°56.091 15.9516 1.348272 9.222474 -2.871232
2007-01-24 08:33:31 51°13.6 2°56.091 15.9528 1.348272 9.222474 -2.871232
2007-01-24 08:33:37 51°13.6 2°56.091 15.9488 1.348375 9.223038 -2.871232
2007-01-24 08:33:42 51°13.6 2°56.091 15.9448 1.348375 9.223038 -2.871232
2007-01-24 08:33:47 51°13.6 2°56.091 15.9552 1.348375 9.223238 -2.871232
2007-01-24 08:33:52 51°13.6 2°56.091 15.9333 1.348375 9.223038 -2.871232
2007-01-24 08:33:57 51°13.6 2°56.091 15.9229 1.348375 9.223038 -2.871232
2007-01-24 08:34:02 51°13.6 2°56.091 15.9206 1.348375 9.223038 -2.871232
2007-01-24 08:34:07 51°13.6 2°56.091 15.9232 1.348375 9.223038 -2.871232
2007-01-24 08:34:12 51°13.6 2°56.091 15.9298 1.348375 9.223038 -2.871232
2007-01-24 08:34:17 51°13.6 2°56.092 15.9391 1.348375 9.223038 -2.871232
2007-01-24 08:34:22 51°13.6 2°56.092 15.9499 1.348478 9.223801 -2.871232
2007-01-24 08:34:27 51°13.6 2°56.092 15.9605 1.348478 9.223801 -2.871232
2007-01-24 08:34:32 51°13.6 2°56.092 15.9653 1.348478 9.223801 -2.871232
2007-01-24 08:34:37 51°13.6 2°56.092 15.9672 1.348478 9.223801 -2.871232
2007-01-24 08:34:42 51°13.6 2°56.092 15.9679 1.348478 9.223801 -2.871232
2007-01-24 08:34:46 51°13.6 2°56.092 15.9692 1.348478 9.223801 -2.871232
2007-01-24 08:34:52 51°13.599 2°56.092 15.9752 1.348478 9.223801 -2.871232
2007-01-24 08:34:57 51°13.599 2°56.092 15.9776 1.348478 9.223801 -2.871232
2007-01-24 08:35:02 51°13.599 2°56.092 15.9782 1.348478 9.223801 -2.871232
2007-01-24 08:35:06 51°13.599 2°56.092 15.9793 1.348478 9.223801 -2.871232
2007-01-24 08:35:12 51°13.599 2°56.093 15.9791 1.348478 9.223801 -2.871232
2007-01-24 08:35:17 51°13.599 2°56.093 15.9816 1.348478 9.223601 -2.871232
2007-01-24 08:35:22 51°13.599 2°56.093 15.983 1.348478 9.223601 -2.871232
2007-01-24 08:35:27 51°13.599 2°56.093 15.9887 1.348478 9.223601 -2.871232
2007-01-24 08:35:31 51°13.599 2°56.093 15.9913 1.348478 9.223601 -2.871232
2007-01-24 08:35:37 51°13.599 2°56.093 15.995 1.348478 9.223801 -2.871232
2007-01-24 08:35:42 51°13.599 2°56.093 15.9964 1.348478 9.223801 -2.871232
2007-01-24 08:35:47 51°13.599 2°56.094 15.9984 1.348478 9.223801 -2.871232
2007-01-24 08:35:51 51°13.598 2°56.094 16.0034 1.348478 9.223601 -2.871232
2007-01-24 08:35:57 51°13.599 2°56.094 16.0144 1.348478 9.223601 -2.871232
2007-01-24 08:36:02 51°13.598 2°56.094 16.0151 1.348478 9.223601 -2.871232
2007-01-24 08:36:07 51°13.598 2°56.094 16.0155 1.348478 9.223601 -2.871232
2007-01-24 08:36:12 51°13.598 2°56.094 16.0146 1.348478 9.223601 -2.871232
2007-01-24 08:36:17 51°13.598 2°56.094 16.011 1.348478 9.223601 -2.871232
2007-01-24 08:36:22 51°13.598 2°56.094 16.0134 1.348478 9.223601 -2.871232
2007-01-24 08:36:27 51°13.598 2°56.094 16.0164 1.348478 9.223601 -2.871232
2007-01-24 08:36:32 51°13.597 2°56.094 16.0157 1.348478 9.223601 -2.871232
2007-01-24 08:36:37 51°13.597 2°56.094 16.0155 1.348478 9.223601 -2.871232
2007-01-24 08:36:42 51°13.597 2°56.094 16.0196 1.348478 9.223601 -2.871232
2007-01-24 08:36:47 51°13.597 2°56.095 16.0225 1.348478 9.223601 -2.871232
2007-01-24 08:36:52 51°13.597 2°56.095 16.0258 1.348478 9.223601 -2.871232
2007-01-24 08:36:57 51°13.597 2°56.095 16.0273 1.348581 9.224365 -2.871232
2007-01-24 08:37:02 51°13.597 2°56.095 16.028 1.348581 9.224165 -2.871232
2007-01-24 08:37:07 51°13.597 2°56.095 16.0285 1.348478 9.223601 -2.871232
2007-01-24 08:37:12 51°13.597 2°56.095 16.0237 1.348478 9.223601 -2.871232
2007-01-24 08:37:17 51°13.597 2°56.095 16.0211 1.348581 9.224365 -2.871232
2007-01-24 08:37:22 51°13.597 2°56.094 16.0218 1.348581 9.224365 -2.871232
2007-01-24 08:37:26 51°13.597 2°56.094 16.0265 1.348581 9.224365 -2.871232
2007-01-24 08:37:32 51°13.597 2°56.094 16.0305 1.348581 9.224165 -2.871232
2007-01-24 08:37:37 51°13.597 2°56.094 16.0302 1.348581 9.224365 -2.871232
2007-01-24 08:37:42 51°13.597 2°56.094 16.0308 1.348581 9.224365 -2.871232
2007-01-24 08:37:47 51°13.597 2°56.094 16.0356 1.348581 9.224365 -2.871232
2007-01-24 08:37:51 51°13.597 2°56.094 16.039 1.348581 9.224165 -2.871232
2007-01-24 08:37:57 51°13.598 2°56.094 16.0431 1.348581 9.224365 -2.871232
2007-01-24 08:38:02 51°13.598 2°56.094 16.0459 1.348581 9.224365 -2.871232
2007-01-24 08:38:07 51°13.598 2°56.094 16.0473 1.348581 9.224365 -2.871232
2007-01-24 08:38:11 51°13.598 2°56.094 16.047 1.348581 9.224365 -2.871232
2007-01-24 08:38:17 51°13.598 2°56.094 16.0486 1.348581 9.224165 -2.871232
2007-01-24 08:38:22 51°13.598 2°56.094 16.0512 1.348581 9.224165 -2.871232
2007-01-24 08:38:27 51°13.598 2°56.094 16.0539 1.348581 9.224165 -2.871232
2007-01-24 08:38:32 51°13.598 2°56.094 16.0557 1.348581 9.224165 -2.871232
2007-01-24 08:38:37 51°13.598 2°56.093 16.0496 1.348581 9.224165 -2.871232
2007-01-24 08:38:42 51°13.598 2°56.093 16.0457 1.348581 9.224165 -2.871232
2007-01-24 08:38:47 51°13.598 2°56.093 16.0452 1.348581 9.224365 -2.871232
2007-01-24 08:38:52 51°13.598 2°56.093 16.0429 1.348581 9.224165 -2.871232
2007-01-24 08:38:57 51°13.598 2°56.093 16.0427 1.348581 9.224165 -2.871232
2007-01-24 08:39:01 51°13.598 2°56.093 16.056 1.348581 9.224365 -2.871232
2007-01-24 08:39:07 51°13.598 2°56.093 16.0685 1.348581 9.224165 -2.871232
2007-01-24 08:39:12 51°13.598 2°56.093 16.0713 1.348581 9.224165 -2.871232
2007-01-24 08:39:17 51°13.598 2°56.093 16.0684 1.348581 9.224165 -2.871232
2007-01-24 08:39:22 51°13.598 2°56.093 16.0709 1.348581 9.224165 -2.871232
2007-01-24 08:39:26 51°13.598 2°56.093 16.0763 1.348581 9.224165 -2.871232
2007-01-24 08:39:32 51°13.598 2°56.093 16.0822 1.348581 9.224165 -2.871232
2007-01-24 08:39:37 51°13.598 2°56.093 16.0872 1.348581 9.224165 -2.871232
2007-01-24 08:39:42 51°13.598 2°56.093 16.0901 1.348581 9.224165 -2.871232
2007-01-24 08:39:47 51°13.598 2°56.093 16.0909 1.348581 9.224165 -2.871232
2007-01-24 08:39:52 51°13.598 2°56.093 16.0937 1.348581 9.224165 -2.871232
2007-01-24 08:39:57 51°13.598 2°56.093 16.0998 1.348581 9.224165 -2.871232
2007-01-24 08:40:02 51°13.598 2°56.093 16.1002 1.348581 9.224165 -2.871232
2007-01-24 08:40:07 51°13.598 2°56.093 16.1021 1.348581 9.224165 -2.871232
2007-01-24 08:40:12 51°13.598 2°56.093 16.1023 1.348581 9.224165 -2.871232
2007-01-24 08:40:17 51°13.598 2°56.093 16.1043 1.348581 9.224165 -2.871232
2007-01-24 08:40:22 51°13.598 2°56.094 16.1046 1.348581 9.224165 -2.871232
2007-01-24 08:40:27 51°13.598 2°56.094 16.1064 1.348581 9.224165 -2.871232
2007-01-24 08:40:31 51°13.598 2°56.094 16.1112 1.348581 9.224165 -2.871232
2007-01-24 08:40:37 51°13.598 2°56.093 16.1159 1.348581 9.224165 -2.871232
2007-01-24 08:40:42 51°13.598 2°56.093 16.1184 1.348581 9.224165 -2.871232
2007-01-24 08:40:47 51°13.598 2°56.093 16.1216 1.348581 9.224165 -2.871232
2007-01-24 08:40:51 51°13.598 2°56.093 16.1255 1.348581 9.224165 -2.871232
2007-01-24 08:40:56 51°13.598 2°56.093 16.1223 1.348581 9.224165 -2.871232
2007-01-24 08:41:02 51°13.598 2°56.093 16.1197 1.348581 9.224165 -2.871232
2007-01-24 08:41:06 51°13.598 2°56.093 16.1197 1.348581 9.224165 -2.871232
2007-01-24 08:41:11 51°13.598 2°56.093 16.1203 1.348581 9.224165 -2.871232
2007-01-24 08:41:16 51°13.598 2°56.093 16.1226 1.348581 9.224165 -2.871232
2007-01-24 08:41:21 51°13.598 2°56.092 16.1239 1.348581 9.224165 -2.871232
2007-01-24 08:41:27 51°13.598 2°56.092 16.1286 1.348581 9.224165 -2.871232
2007-01-24 08:41:32 51°13.598 2°56.092 16.1308 1.348685 9.224928 -2.871232
2007-01-24 08:41:37 51°13.598 2°56.093 16.1337 1.348685 9.224928 -2.871232
2007-01-24 08:41:42 51°13.599 2°56.093 16.133 1.348685 9.224928 -2.871232
2007-01-24 08:41:47 51°13.599 2°56.092 16.1305 1.348685 9.224928 -2.871232
2007-01-24 08:41:51 51°13.599 2°56.092 16.1296 1.348685 9.224928 -2.871232
2007-01-24 08:41:57 51°13.598 2°56.092 16.1313 1.348685 9.224928 -2.871232
2007-01-24 08:42:02 51°13.598 2°56.091 16.1365 1.348685 9.224928 -2.871232
2007-01-24 08:42:06 51°13.598 2°56.091 16.1381 1.348685 9.224928 -2.871232
2007-01-24 08:42:11 51°13.598 2°56.091 16.1417 1.348685 9.224928 -2.871232
2007-01-24 08:42:16 51°13.598 2°56.091 16.1443 1.348685 9.224928 -2.871232
2007-01-24 08:42:21 51°13.598 2°56.091 16.149 1.348685 9.224928 -2.871232
2007-01-24 08:42:26 51°13.599 2°56.091 16.1451 1.348685 9.224928 -2.871232
2007-01-24 08:42:31 51°13.599 2°56.091 16.1398 1.348685 9.224928 -2.871232
2007-01-24 08:42:36 51°13.599 2°56.091 16.1381 1.348685 9.224928 -2.871232
2007-01-24 08:42:42 51°13.6 2°56.091 16.1502 1.348685 9.224928 -2.871232
2007-01-24 08:42:46 51°13.6 2°56.091 16.1562 1.348685 9.224928 -2.871232
2007-01-24 08:42:51 51°13.6 2°56.091 16.1552 1.348685 9.224928 -2.871232
2007-01-24 08:42:56 51°13.6 2°56.091 16.158 1.348685 9.224928 -2.871232
2007-01-24 08:43:02 51°13.6 2°56.091 16.1613 1.348685 9.224928 -2.871232
2007-01-24 08:43:06 51°13.6 2°56.091 16.1678 1.348685 9.224928 -2.871232
2007-01-24 08:43:11 51°13.599 2°56.09 16.1697 1.348685 9.224928 -2.871232
2007-01-24 08:43:16 51°13.599 2°56.09 16.1727 1.348685 9.224928 -2.871232
2007-01-24 08:43:22 51°13.599 2°56.09 16.1747 1.348685 9.224928 -2.871232
2007-01-24 08:43:26 51°13.598 2°56.091 16.1729 1.348685 9.224928 -2.871232
2007-01-24 08:43:31 51°13.597 2°56.091 16.173 1.348685 9.224928 -2.871232
2007-01-24 08:43:35 51°13.597 2°56.091 16.1747 1.348685 9.224928 -2.871232
2007-01-24 08:43:41 51°13.597 2°56.091 16.1739 1.348685 9.224928 -2.871232
2007-01-24 08:43:47 51°13.597 2°56.091 16.1761 1.348685 9.224928 -2.871232
2007-01-24 08:43:51 51°13.597 2°56.091 16.1734 1.348685 9.224928 -2.871232
2007-01-24 08:43:57 51°13.599 2°56.09 16.1749 1.348685 9.224928 -2.871232
2007-01-24 08:44:01 51°13.599 2°56.09 16.1779 1.348685 9.224928 -2.871232
2007-01-24 08:44:06 51°13.6 2°56.09 16.1913 1.348685 9.224928 -2.871232
2007-01-24 08:44:11 51°13.6 2°56.09 16.1944 1.348685 9.224928 -2.871232
2007-01-24 08:44:16 51°13.6 2°56.09 16.1962 1.348685 9.224928 -2.871232
2007-01-24 08:44:21 51°13.6 2°56.09 16.1967 1.348685 9.224928 -2.871232
2007-01-24 08:44:26 51°13.6 2°56.09 16.1888 1.348685 9.224928 -2.871232
2007-01-24 08:44:31 51°13.6 2°56.09 16.1744 1.348685 9.224928 -2.871232
2007-01-24 08:44:36 51°13.6 2°56.09 16.1767 1.348685 9.224928 -2.871232
2007-01-24 08:44:41 51°13.6 2°56.091 16.1797 1.348685 9.224928 -2.871232
2007-01-24 08:44:46 51°13.6 2°56.091 16.1823 1.348685 9.224928 -2.871232
2007-01-24 08:44:51 51°13.6 2°56.091 16.1885 1.348685 9.224928 -2.871232
2007-01-24 08:44:56 51°13.6 2°56.091 16.1898 1.348685 9.224928 -2.871232
2007-01-24 08:45:01 51°13.601 2°56.091 16.1923 1.348685 9.224928 -2.871232
2007-01-24 08:45:06 51°13.601 2°56.091 16.2859 1.348685 9.224928 -2.871232
2007-01-24 08:45:11 51°13.601 2°56.091 16.2936 1.348685 9.224928 -2.871232
2007-01-24 08:45:16 51°13.601 2°56.091 16.3807 1.348685 9.224728 -2.871232
2007-01-24 08:45:21 51°13.601 2°56.092 16.354 1.348685 9.224728 -2.871232
2007-01-24 08:45:26 51°13.601 2°56.092 16.3662 1.348685 9.224728 -2.871232
2007-01-24 08:45:31 51°13.601 2°56.092 16.3738 1.348685 9.224728 -2.871232
2007-01-24 08:45:36 51°13.601 2°56.092 16.3644 1.348685 9.224728 -2.871232
2007-01-24 08:45:41 51°13.6 2°56.091 16.3441 1.348685 9.224728 -2.871232
2007-01-24 08:45:46 51°13.6 2°56.091 16.3353 1.348685 9.224928 -2.871232
2007-01-24 08:45:51 51°13.6 2°56.091 16.3311 1.348685 9.224728 -2.871232
2007-01-24 08:45:56 51°13.6 2°56.091 16.33 1.348685 9.224728 -2.871232
2007-01-24 08:46:01 51°13.599 2°56.091 16.3255 1.348685 9.224728 -2.871232
2007-01-24 08:46:06 51°13.6 2°56.091 16.3221 1.348685 9.224928 -2.871232
2007-01-24 08:46:11 51°13.599 2°56.091 16.3071 1.348685 9.224928 -2.871232
2007-01-24 08:46:16 51°13.599 2°56.091 16.3083 1.348685 9.224728 -2.871232
2007-01-24 08:46:21 51°13.599 2°56.091 16.3034 1.348685 9.224728 -2.871232
2007-01-24 08:46:26 51°13.599 2°56.091 16.3017 1.348685 9.224928 -2.871232
2007-01-24 08:46:31 51°13.599 2°56.091 16.296 1.348685 9.224728 -2.871232
2007-01-24 08:46:36 51°13.599 2°56.091 16.3032 1.348685 9.224728 -2.871232
2007-01-24 08:46:41 51°13.599 2°56.091 16.308 1.348685 9.224728 -2.871232
2007-01-24 08:46:46 51°13.599 2°56.091 16.3065 1.348685 9.224728 -2.871232
2007-01-24 08:46:51 51°13.599 2°56.091 16.3052 1.348685 9.224728 -2.871232
2007-01-24 08:46:56 51°13.599 2°56.091 16.3032 1.348685 9.224728 -2.871232
2007-01-24 08:47:01 51°13.6 2°56.091 16.3019 1.348685 9.224728 -2.871232
2007-01-24 08:47:06 51°13.6 2°56.091 16.307 1.348685 9.224728 -2.871232
2007-01-24 08:47:11 51°13.599 2°56.091 16.3118 1.348685 9.224928 -2.871232
2007-01-24 08:47:16 51°13.599 2°56.091 16.3133 1.348685 9.224728 -2.871232
2007-01-24 08:47:21 51°13.599 2°56.091 16.313 1.348685 9.224928 -2.871232
2007-01-24 08:47:26 51°13.599 2°56.091 16.3132 1.348685 9.224728 -2.871232
2007-01-24 08:47:31 51°13.599 2°56.091 16.3141 1.348685 9.224728 -2.871232
2007-01-24 08:47:36 51°13.6 2°56.091 16.3132 1.348685 9.224728 -2.871232
2007-01-24 08:47:41 51°13.6 2°56.091 16.3137 1.348685 9.224728 -2.871232
2007-01-24 08:47:46 51°13.6 2°56.092 16.3104 1.348685 9.224728 -2.871232
2007-01-24 08:47:51 51°13.6 2°56.092 16.3083 1.348685 9.224728 -2.871232
2007-01-24 08:47:56 51°13.6 2°56.092 16.3068 1.348685 9.224728 -2.871232
2007-01-24 08:48:01 51°13.6 2°56.092 16.3098 1.348685 9.224728 -2.871232
2007-01-24 08:48:06 51°13.6 2°56.092 16.3117 1.348685 9.224728 -2.871232
2007-01-24 08:48:11 51°13.6 2°56.092 16.3163 1.348685 9.224728 -2.871232
2007-01-24 08:48:16 51°13.6 2°56.092 16.3202 1.348685 9.224728 -2.871232
2007-01-24 08:48:21 51°13.6 2°56.092 16.3231 1.348581 9.223965 -2.871232
2007-01-24 08:48:26 51°13.6 2°56.092 16.3244 1.348685 9.224728 -2.871232
2007-01-24 08:48:31 51°13.6 2°56.092 16.3251 1.348581 9.223965 -2.871232
2007-01-24 08:48:36 51°13.6 2°56.093 16.3247 1.348581 9.223965 -2.871232
2007-01-24 08:48:41 51°13.6 2°56.093 16.324 1.348581 9.223965 -2.871232
2007-01-24 08:48:46 51°13.6 2°56.093 16.326 1.348685 9.224728 -2.871232
2007-01-24 08:48:51 51°13.6 2°56.093 16.3248 1.348581 9.223965 -2.871232
2007-01-24 08:48:56 51°13.6 2°56.093 16.3271 1.348581 9.223965 -2.871232
2007-01-24 08:49:01 51°13.6 2°56.093 16.3285 1.348581 9.223965 -2.871232
2007-01-24 08:49:06 51°13.6 2°56.093 16.3313 1.348581 9.223965 -2.871232
2007-01-24 08:49:11 51°13.6 2°56.092 16.3378 1.348581 9.223965 -2.871232
2007-01-24 08:49:16 51°13.599 2°56.092 16.3474 1.348581 9.223965 -2.871232
2007-01-24 08:49:21 51°13.599 2°56.092 16.3507 1.348581 9.223965 -2.871232
2007-01-24 08:49:26 51°13.599 2°56.092 16.3528 1.348581 9.223965 -2.871232
2007-01-24 08:49:31 51°13.599 2°56.092 16.3524 1.348581 9.223965 -2.871232
2007-01-24 08:49:36 51°13.599 2°56.092 16.3541 1.348581 9.223965 -2.871232
2007-01-24 08:49:41 51°13.599 2°56.092 16.3543 1.348581 9.223965 -2.871232
2007-01-24 08:49:46 51°13.599 2°56.092 16.3559 1.348581 9.223965 -2.871232
2007-01-24 08:49:51 51°13.599 2°56.092 16.3579 1.348581 9.223965 -2.871232
2007-01-24 08:49:56 51°13.599 2°56.092 16.3594 1.348581 9.223965 -2.871232
2007-01-24 08:50:01 51°13.599 2°56.092 16.3613 1.348581 9.223965 -2.871232
2007-01-24 08:50:06 51°13.599 2°56.092 16.3596 1.348581 9.223965 -2.871232
2007-01-24 08:50:11 51°13.599 2°56.092 16.3595 1.348581 9.223965 -2.871232
2007-01-24 08:50:16 51°13.599 2°56.092 16.3552 1.348581 9.223965 -2.871232
2007-01-24 08:50:21 51°13.599 2°56.092 16.3488 1.348581 9.223965 -2.871232
2007-01-24 08:50:26 51°13.599 2°56.092 16.3471 1.348581 9.223965 -2.871232
2007-01-24 08:50:31 51°13.599 2°56.092 16.3511 1.348581 9.223965 -2.871232
2007-01-24 08:50:36 51°13.599 2°56.093 16.3552 1.348581 9.223965 -2.871232
2007-01-24 08:50:41 51°13.599 2°56.093 16.3564 1.348581 9.223965 -2.871232
2007-01-24 08:50:46 51°13.599 2°56.093 16.3575 1.348581 9.223965 -2.871232
2007-01-24 08:50:51 51°13.599 2°56.093 16.3587 1.348581 9.223965 -2.871232
2007-01-24 08:50:56 51°13.599 2°56.093 16.3582 1.348581 9.223965 -2.871232
2007-01-24 08:51:01 51°13.599 2°56.093 16.3607 1.348581 9.223965 -2.871232
2007-01-24 08:51:06 51°13.599 2°56.093 16.3659 1.348581 9.223965 -2.871232
2007-01-24 08:51:11 51°13.599 2°56.092 16.3531 1.348581 9.223765 -2.871232
2007-01-24 08:51:16 51°13.599 2°56.093 16.3411 1.348581 9.223965 -2.871232
2007-01-24 08:51:21 51°13.599 2°56.093 16.3442 1.348581 9.223965 -2.871232
2007-01-24 08:51:26 51°13.599 2°56.093 16.3529 1.348581 9.223965 -2.871232
2007-01-24 08:51:31 51°13.599 2°56.093 16.354 1.348581 9.223765 -2.871232
2007-01-24 08:51:36 51°13.599 2°56.093 16.3633 1.348581 9.223765 -2.871232
2007-01-24 08:51:41 51°13.599 2°56.093 16.3652 1.348581 9.223965 -2.871232
2007-01-24 08:51:46 51°13.599 2°56.093 16.3631 1.348581 9.223765 -2.871232
2007-01-24 08:51:51 51°13.599 2°56.093 16.3602 1.348581 9.223765 -2.871232
2007-01-24 08:51:56 51°13.599 2°56.093 16.3595 1.348581 9.223765 -2.871232
2007-01-24 08:52:01 51°13.599 2°56.093 16.3514 1.348581 9.223765 -2.871232
2007-01-24 08:52:06 51°13.599 2°56.093 16.3495 1.348581 9.223765 -2.871232
2007-01-24 08:52:11 51°13.599 2°56.093 16.3298 1.348581 9.223765 -2.871232
2007-01-24 08:52:16 51°13.599 2°56.093 16.3295 1.348581 9.223765 -2.871232
2007-01-24 08:52:21 51°13.599 2°56.093 16.3499 1.348581 9.223765 -2.871232
2007-01-24 08:52:26 51°13.599 2°56.093 16.3655 1.348581 9.223765 -2.871232
2007-01-24 08:52:31 51°13.599 2°56.092 16.3717 1.348581 9.223765 -2.871232
2007-01-24 08:52:36 51°13.599 2°56.092 16.3768 1.348581 9.223765 -2.871232
2007-01-24 08:52:41 51°13.599 2°56.092 16.3785 1.348581 9.223765 -2.871232
2007-01-24 08:52:46 51°13.599 2°56.091 16.3817 1.348581 9.223765 -2.871232
2007-01-24 08:52:51 51°13.599 2°56.092 16.3835 1.348478 9.223002 -2.871232
2007-01-24 08:52:56 51°13.599 2°56.092 16.382 1.348478 9.223002 -2.871232
2007-01-24 08:53:01 51°13.598 2°56.092 16.3835 1.348478 9.223002 -2.871232
2007-01-24 08:53:06 51°13.598 2°56.092 16.388 1.348478 9.223002 -2.871232
2007-01-24 08:53:11 51°13.598 2°56.092 16.4051 1.348478 9.223002 -2.871232
2007-01-24 08:53:16 51°13.598 2°56.092 16.432 1.348478 9.223002 -2.871232
2007-01-24 08:53:21 51°13.598 2°56.092 16.4378 1.348478 9.223002 -2.871232
2007-01-24 08:53:26 51°13.598 2°56.092 16.4325 1.348478 9.223002 -2.871232
2007-01-24 08:53:31 51°13.598 2°56.092 16.4412 1.348478 9.223002 -2.871232
2007-01-24 08:53:36 51°13.598 2°56.092 16.4511 1.348478 9.223002 -2.871232
2007-01-24 08:53:41 51°13.598 2°56.093 16.4535 1.348478 9.223002 -2.871232
2007-01-24 08:53:46 51°13.598 2°56.093 16.4271 1.348478 9.223002 -2.871232
2007-01-24 08:53:51 51°13.597 2°56.094 16.4382 1.348478 9.223002 -2.871232
2007-01-24 08:53:56 51°13.598 2°56.094 16.4415 1.348478 9.223202 -2.871232
2007-01-24 08:54:01 51°13.598 2°56.094 16.4662 1.348478 9.223202 -2.871232
2007-01-24 08:54:06 51°13.598 2°56.094 16.4487 1.348478 9.223202 -2.871232
2007-01-24 08:54:11 51°13.598 2°56.094 16.4578 1.348478 9.223002 -2.871232
2007-01-24 08:54:16 51°13.598 2°56.094 16.4431 1.348478 9.223002 -2.871232
2007-01-24 08:54:21 51°13.598 2°56.094 16.4408 1.348478 9.223002 -2.871232
2007-01-24 08:54:26 51°13.598 2°56.094 16.4392 1.348478 9.223002 -2.871232
2007-01-24 08:54:31 51°13.598 2°56.094 16.4441 1.348478 9.223002 -2.871232
2007-01-24 08:54:36 51°13.598 2°56.094 16.4468 1.348478 9.223002 -2.871232
2007-01-24 08:54:41 51°13.598 2°56.094 16.4481 1.348478 9.223202 -2.871232
2007-01-24 08:54:46 51°13.598 2°56.094 16.4488 1.348478 9.223002 -2.871232
2007-01-24 08:54:51 51°13.598 2°56.094 16.4442 1.348478 9.223002 -2.871232
2007-01-24 08:54:56 51°13.598 2°56.094 16.4467 1.348478 9.222802 -2.871232
2007-01-24 08:55:01 51°13.598 2°56.094 16.4438 1.348478 9.222802 -2.871232
2007-01-24 08:55:06 51°13.598 2°56.094 16.4456 1.348478 9.222802 -2.871232
2007-01-24 08:55:11 51°13.598 2°56.094 16.4484 1.348478 9.222802 -2.871232
2007-01-24 08:55:16 51°13.598 2°56.094 16.454 1.348478 9.222802 -2.871232
2007-01-24 08:55:21 51°13.598 2°56.094 16.4435 1.348478 9.222802 -2.871232
2007-01-24 08:55:26 51°13.598 2°56.094 16.4686 1.348478 9.222802 -2.871232
2007-01-24 08:55:31 51°13.598 2°56.094 16.454 1.348478 9.222802 -2.871232
2007-01-24 08:55:36 51°13.597 2°56.094 16.4965 1.348478 9.222802 -2.871232
2007-01-24 08:55:41 51°13.597 2°56.094 16.4551 1.348478 9.222802 -2.871232
2007-01-24 08:55:46 51°13.597 2°56.094 16.4659 1.348478 9.222802 -2.871232
2007-01-24 08:55:51 51°13.597 2°56.094 16.4496 1.348272 9.221475 -2.871232
2007-01-24 08:55:56 51°13.597 2°56.093 16.4301 1.348788 9.225092 -2.871232
2007-01-24 08:56:01 51°13.597 2°56.092 16.4688 1.348891 9.225855 -2.871232
2007-01-24 08:56:06 51°13.598 2°56.091 16.4715 1.348891 9.225855 -2.871232
2007-01-24 08:56:11 51°13.598 2°56.09 16.4736 1.348891 9.225855 -2.871232
2007-01-24 08:56:16 51°13.598 2°56.089 16.4746 1.348788 9.225092 -2.871232
2007-01-24 08:56:21 51°13.599 2°56.087 16.4818 1.348788 9.225092 -2.871232
2007-01-24 08:56:26 51°13.599 2°56.084 16.4434 1.348788 9.225092 -2.871232
2007-01-24 08:56:31 51°13.6 2°56.081 16.4413 1.348788 9.225092 -2.871232
2007-01-24 08:56:36 51°13.601 2°56.077 16.4196 1.348788 9.225092 -2.871232
2007-01-24 08:56:41 51°13.603 2°56.072 16.4589 1.348788 9.225092 -2.871232
2007-01-24 08:56:46 51°13.604 2°56.066 16.467 1.348685 9.224328 -2.871232
2007-01-24 08:56:51 51°13.606 2°56.06 16.4063 1.348685 9.224328 -2.871232
2007-01-24 08:56:56 51°13.609 2°56.053 16.552 1.348685 9.224328 -2.871232
2007-01-24 08:57:01 51°13.611 2°56.045 16.5892 1.348685 9.224328 -2.871232
2007-01-24 08:57:06 51°13.613 2°56.037 16.5895 1.348685 9.224328 -2.871232
2007-01-24 08:57:11 51°13.616 2°56.03 16.5667 1.348685 9.224328 -2.871232
2007-01-24 08:57:16 51°13.618 2°56.022 16.5818 1.348581 9.223565 -2.871232
2007-01-24 08:57:22 51°13.621 2°56.013 16.5698 1.348581 9.223565 -2.871232
2007-01-24 08:57:26 51°13.623 2°56.006 16.5605 1.348581 9.223565 -2.871232
2007-01-24 08:57:32 51°13.627 2°55.995 16.5629 1.348581 9.223365 -2.871232
2007-01-24 08:57:36 51°13.629 2°55.988 16.5546 1.348581 9.223365 -2.871232
2007-01-24 08:57:41 51°13.632 2°55.979 16.563 1.348581 9.223365 -2.871232
2007-01-24 08:57:46 51°13.635 2°55.969 16.5715 1.348581 9.223365 -2.871232
2007-01-24 08:57:51 51°13.638 2°55.96 16.5579 1.348581 9.223365 -2.871232
2007-01-24 08:57:56 51°13.641 2°55.951 16.5719 1.348581 9.223365 -2.871232
2007-01-24 08:58:01 51°13.644 2°55.942 16.5713 1.348581 9.223365 -2.871232
2007-01-24 08:58:06 51°13.647 2°55.933 16.5785 1.348581 9.223365 -2.871232
2007-01-24 08:58:11 51°13.65 2°55.924 16.5732 1.348478 9.222402 -2.871232
2007-01-24 08:58:17 51°13.654 2°55.914 16.56 1.348478 9.222402 -2.871232
2007-01-24 08:58:21 51°13.656 2°55.906 16.5602 1.348478 9.222203 -2.871232
2007-01-24 08:58:26 51°13.659 2°55.898 16.5586 1.348478 9.222402 -2.871232
2007-01-24 08:58:31 51°13.663 2°55.889 16.5601 1.348478 9.222402 -2.871232
2007-01-24 08:58:37 51°13.666 2°55.878 16.5845 1.348478 9.222402 -2.871232
2007-01-24 08:58:42 51°13.669 2°55.869 16.6026 1.348478 9.222402 -2.871232
2007-01-24 08:58:46 51°13.671 2°55.862 16.5961 1.348478 9.222402 -2.871232
2007-01-24 08:58:51 51°13.674 2°55.854 16.5821 1.348478 9.222203 -2.871232
2007-01-24 08:58:56 51°13.677 2°55.846 16.5813 1.348478 9.222203 -2.871232
2007-01-24 08:59:01 51°13.679 2°55.838 16.5647 1.348478 9.222203 -2.871232
2007-01-24 08:59:06 51°13.682 2°55.83 16.5544 1.348478 9.222203 -2.871232
2007-01-24 08:59:11 51°13.684 2°55.822 16.5558 1.348478 9.222203 -2.871232
2007-01-24 08:59:16 51°13.686 2°55.814 16.5615 1.348478 9.222203 -2.871232
2007-01-24 08:59:21 51°13.688 2°55.807 16.5781 1.348478 9.222203 -2.871232
2007-01-24 08:59:26 51°13.69 2°55.8 16.5692 1.348478 9.222203 -2.871232
2007-01-24 08:59:31 51°13.691 2°55.793 16.5684 1.348478 9.222203 -2.871232
2007-01-24 08:59:36 51°13.693 2°55.786 16.5796 1.348478 9.222203 -2.871232
2007-01-24 08:59:41 51°13.695 2°55.779 16.5871 1.348478 9.222003 -2.871232
2007-01-24 08:59:46 51°13.696 2°55.773 16.5687 1.348478 9.222203 -2.871232
2007-01-24 08:59:51 51°13.697 2°55.767 16.5594 1.348478 9.222203 -2.871232
2007-01-24 08:59:56 51°13.698 2°55.761 16.555 1.348478 9.222003 -2.871232
2007-01-24 09:00:01 51°13.699 2°55.756 16.5522 1.348478 9.222003 -2.871232
2007-01-24 09:00:06 51°13.7 2°55.751 16.554 1.348478 9.222003 -2.871232
2007-01-24 09:00:11 51°13.701 2°55.747 16.5621 1.348478 9.222003 -2.871232
2007-01-24 09:00:16 51°13.702 2°55.744 16.5697 1.348375 9.22124 -2.871232
2007-01-24 09:00:21 51°13.702 2°55.742 16.6071 1.348375 9.22104 -2.871232
2007-01-24 09:00:26 51°13.703 2°55.741 16.6373 1.348375 9.22104 -2.871232
2007-01-24 09:00:31 51°13.703 2°55.741 16.6165 1.348375 9.22084 -2.871232
2007-01-24 09:00:36 51°13.704 2°55.741 16.6101 1.348375 9.22084 -2.871232
2007-01-24 09:00:41 51°13.705 2°55.743 16.5841 1.348375 9.22084 -2.871232
2007-01-24 09:00:46 51°13.706 2°55.744 16.5794 1.348375 9.22104 -2.871232
2007-01-24 09:00:51 51°13.706 2°55.745 16.5756 1.348375 9.22104 -2.871232
2007-01-24 09:00:56 51°13.707 2°55.745 16.5732 1.348375 9.22104 -2.871232
2007-01-24 09:01:01 51°13.708 2°55.746 16.5661 1.348375 9.22104 -2.871232
2007-01-24 09:01:06 51°13.708 2°55.746 16.5657 1.348375 9.22104 -2.871232
2007-01-24 09:01:11 51°13.709 2°55.746 16.5703 1.348375 9.22084 -2.871232
2007-01-24 09:01:16 51°13.709 2°55.745 16.5758 1.348375 9.22104 -2.871232
2007-01-24 09:01:21 51°13.709 2°55.744 16.572 1.348375 9.22124 -2.871232
2007-01-24 09:01:26 51°13.708 2°55.742 16.5844 1.348375 9.22124 -2.871232
2007-01-24 09:01:31 51°13.708 2°55.741 16.648 1.348375 9.22124 -2.871232
2007-01-24 09:01:36 51°13.708 2°55.739 16.6579 1.348375 9.22124 -2.871232
2007-01-24 09:01:41 51°13.707 2°55.738 16.6173 1.348375 9.22124 -2.871232
2007-01-24 09:01:46 51°13.707 2°55.737 16.5858 1.348375 9.22104 -2.871232
2007-01-24 09:01:51 51°13.707 2°55.736 16.5955 1.348375 9.22084 -2.871232
2007-01-24 09:01:56 51°13.707 2°55.734 16.5855 1.348375 9.22084 -2.871232
2007-01-24 09:02:01 51°13.707 2°55.734 16.6013 1.348375 9.22084 -2.871232
2007-01-24 09:02:06 51°13.707 2°55.734 16.6057 1.348375 9.22104 -2.871232
2007-01-24 09:02:11 51°13.708 2°55.734 16.6203 1.348375 9.22104 -2.871232
2007-01-24 09:02:16 51°13.709 2°55.734 16.636 1.348375 9.22084 -2.871232
2007-01-24 09:02:21 51°13.711 2°55.734 16.655 1.348375 9.22064 -2.871232
2007-01-24 09:02:26 51°13.713 2°55.735 16.669 1.348375 9.22064 -2.871232
2007-01-24 09:02:31 51°13.715 2°55.735 16.6723 1.348375 9.22064 -2.871232
2007-01-24 09:02:36 51°13.718 2°55.735 16.6691 1.348375 9.22064 -2.871232
2007-01-24 09:02:41 51°13.721 2°55.735 16.6524 1.348375 9.22064 -2.871232
2007-01-24 09:02:46 51°13.723 2°55.734 16.6415 1.348375 9.22064 -2.871232
2007-01-24 09:02:51 51°13.726 2°55.734 16.6446 1.348375 9.22064 -2.871232
2007-01-24 09:02:56 51°13.73 2°55.732 16.6458 1.348375 9.22064 -2.871232
2007-01-24 09:03:01 51°13.733 2°55.731 16.6515 1.348375 9.22064 -2.871232
2007-01-24 09:03:06 51°13.736 2°55.729 16.6336 1.348375 9.22064 -2.871232
2007-01-24 09:03:11 51°13.738 2°55.727 16.6164 1.348375 9.22064 -2.871232
2007-01-24 09:03:16 51°13.741 2°55.725 16.6104 1.348375 9.22064 -2.871232
2007-01-24 09:03:21 51°13.744 2°55.722 16.61 1.348375 9.22064 -2.871232
2007-01-24 09:03:26 51°13.747 2°55.72 16.5972 1.348375 9.22064 -2.871232
2007-01-24 09:03:31 51°13.749 2°55.717 16.5895 1.348375 9.22064 -2.871232
2007-01-24 09:03:36 51°13.752 2°55.715 16.3925 1.348375 9.22064 -2.871232
2007-01-24 09:03:41 51°13.754 2°55.713 10.095 1.346828 9.186911 -2.871232
2007-01-24 09:03:46 51°13.757 2°55.71 8.0246 1.346623 9.220253 -2.871232
2007-01-24 09:03:51 51°13.76 2°55.708 7.8313 2.348448 16.883473 -2.871232
2007-01-24 09:03:56 51°13.762 2°55.706 7.7419 2.622363 18.308857 -2.871232
2007-01-24 09:04:01 51°13.764 2°55.703 7.6629 3.074026 20.169407 -2.871232
2007-01-24 09:04:06 51°13.767 2°55.701 7.6227 3.130844 21.261102 -2.871232
2007-01-24 09:04:11 51°13.769 2°55.699 7.5825 3.130844 21.261102 -2.871232
2007-01-24 09:04:16 51°13.772 2°55.697 7.5571 3.037042 22.625118 -2.871232
2007-01-24 09:04:21 51°13.774 2°55.695 7.5368 3.083945 25.217401 -2.871232
2007-01-24 09:04:26 51°13.777 2°55.692 7.5104 3.189614 27.411806 -2.871232
2007-01-24 09:04:31 51°13.779 2°55.69 7.4857 3.094527 27.309226 -2.871232
2007-01-24 09:04:36 51°13.782 2°55.688 7.4766 3.094527 27.309226 -2.871232
2007-01-24 09:04:41 51°13.784 2°55.686 7.4734 2.942252 26.208582 -2.871232
2007-01-24 09:04:46 51°13.786 2°55.683 7.4707 2.888369 25.920401 -2.871232
2007-01-24 09:04:51 51°13.789 2°55.681 7.4782 2.866859 25.820994 -2.871232
2007-01-24 09:04:56 51°13.791 2°55.679 7.4786 2.850624 25.751667 -2.871232
2007-01-24 09:05:01 51°13.794 2°55.677 7.4754 2.523641 22.577117 -2.871232
2007-01-24 09:05:06 51°13.796 2°55.675 7.4747 2.523641 22.577117 -2.871232
2007-01-24 09:05:11 51°13.799 2°55.673 7.4761 2.840904 25.767489 -2.871232
2007-01-24 09:05:16 51°13.801 2°55.67 7.4728 2.84835 25.887333 -2.871232
2007-01-24 09:05:21 51°13.803 2°55.668 7.4669 2.871206 26.133539 -2.871232
2007-01-24 09:05:26 51°13.805 2°55.666 7.4677 2.891683 26.356433 -2.871232
2007-01-24 09:05:31 51°13.808 2°55.664 7.4661 2.895614 26.406821 -2.871232
2007-01-24 09:05:36 51°13.81 2°55.661 7.4521 2.90275 26.490972 -2.871232
2007-01-24 09:05:41 51°13.812 2°55.659 7.4441 2.90275 26.490972 -2.871232
2007-01-24 09:05:46 51°13.815 2°55.657 7.4351 2.908852 26.562618 -2.871232
2007-01-24 09:05:51 51°13.817 2°55.655 7.4366 2.910818 26.592661 -2.871232
2007-01-24 09:05:56 51°13.819 2°55.652 7.4494 2.866036 26.147096 -2.871232
2007-01-24 09:06:01 51°13.822 2°55.65 7.4731 2.911128 26.613391 -2.871232
2007-01-24 09:06:06 51°13.824 2°55.648 7.484 2.910508 26.617414 -2.871232
2007-01-24 09:06:11 51°13.827 2°55.646 7.5011 2.910508 26.617414 -2.871232
2007-01-24 09:06:16 51°13.829 2°55.644 7.5236 2.90182 26.54521 -2.871232
2007-01-24 09:06:21 51°13.831 2°55.642 7.5546 2.893029 26.468991 -2.871232
2007-01-24 09:06:26 51°13.834 2°55.641 7.5796 2.894477 26.486522 -2.871232
2007-01-24 09:06:31 51°13.836 2°55.639 7.5826 2.912783 26.666112 -2.871232
2007-01-24 09:06:36 51°13.838 2°55.637 7.5722 2.912783 26.666112 -2.871232
2007-01-24 09:06:41 51°13.84 2°55.635 7.5651 2.930573 26.838353 -2.871232
2007-01-24 09:06:46 51°13.843 2°55.633 7.5543 2.942468 26.948851 -2.871232
2007-01-24 09:06:51 51°13.845 2°55.631 7.5316 2.948984 26.99755 -2.871232
2007-01-24 09:06:56 51°13.847 2°55.629 7.502 2.956742 27.056501 -2.871232
2007-01-24 09:07:01 51°13.848 2°55.628 7.4807 2.962948 27.105714 -2.871232
2007-01-24 09:07:06 51°13.85 2°55.626 7.4659 2.962948 27.105714 -2.871232
2007-01-24 09:07:11 51°13.852 2°55.625 7.4502 2.972878 27.203715 -2.871232
2007-01-24 09:07:16 51°13.853 2°55.624 7.4543 2.966258 27.140621 -2.871232
2007-01-24 09:07:21 51°13.854 2°55.623 7.4674 2.954983 27.036514 -2.871232
2007-01-24 09:07:26 51°13.855 2°55.622 7.4851 2.93471 26.849006 -2.871232
2007-01-24 09:07:31 51°13.856 2°55.622 7.502 2.913714 26.659309 -2.871232
2007-01-24 09:07:36 51°13.857 2°55.621 7.5085 2.896132 26.499555 -2.871232
2007-01-24 09:07:41 51°13.857 2°55.621 7.5183 2.896132 26.499555 -2.871232
2007-01-24 09:07:46 51°13.858 2°55.62 7.535 2.880618 26.356233 -2.871232
2007-01-24 09:07:51 51°13.859 2°55.62 7.5507 2.875654 26.311994 -2.871232
2007-01-24 09:07:56 51°13.86 2°55.62 7.571 2.899752 26.550738 -2.871232
2007-01-24 09:08:01 51°13.861 2°55.619 7.5831 2.916197 26.709421 -2.871232
2007-01-24 09:08:06 51°13.862 2°55.618 7.6146 2.923643 26.776505 -2.871232
2007-01-24 09:08:11 51°13.863 2°55.618 7.6078 2.923643 26.776505 -2.871232
2007-01-24 09:08:16 51°13.863 2°55.617 7.6296 2.9374 26.907312 -2.871232
2007-01-24 09:08:21 51°13.864 2°55.616 7.6429 2.931504 26.838862 -2.871232
2007-01-24 09:08:26 51°13.864 2°55.616 7.6584 2.968327 27.19823 -2.871232
2007-01-24 09:08:31 51°13.865 2°55.615 7.6638 2.998843 27.49179 -2.871232
2007-01-24 09:08:36 51°13.866 2°55.615 7.6793 2.998843 27.49179 -2.871232
2007-01-24 09:08:41 51°13.867 2°55.614 7.6868 3.008567 27.574998 -2.871232
2007-01-24 09:08:46 51°13.868 2°55.614 7.6904 3.034948 27.830564 -2.871232
2007-01-24 09:08:51 51°13.869 2°55.614 7.6942 3.043948 27.910187 -2.871232
2007-01-24 09:08:56 51°13.87 2°55.613 7.6985 3.069296 28.153826 -2.871232
2007-01-24 09:09:01 51°13.871 2°55.613 7.6979 3.070434 28.153732 -2.871232
2007-01-24 09:09:06 51°13.872 2°55.612 7.6922 3.103854 28.482329 -2.871232
2007-01-24 09:09:11 51°13.873 2°55.611 7.6956 3.103854 28.482329 -2.871232
2007-01-24 09:09:16 51°13.874 2°55.611 7.6973 3.109027 28.52617 -2.871232
2007-01-24 09:09:21 51°13.875 2°55.61 7.7012 3.11327 28.56291 -2.871232
2007-01-24 09:09:26 51°13.876 2°55.61 7.7009 3.120099 28.627451 -2.871232
2007-01-24 09:09:31 51°13.877 2°55.609 7.7059 3.106958 28.491863 -2.871232
2007-01-24 09:09:36 51°13.878 2°55.608 7.7047 3.119064 28.613809 -2.871232
2007-01-24 09:09:41 51°13.879 2°55.608 7.705 3.119064 28.613809 -2.871232
2007-01-24 09:09:46 51°13.881 2°55.607 7.7084 3.114822 28.570793 -2.871232
2007-01-24 09:09:51 51°13.882 2°55.607 7.7101 3.125687 28.679397 -2.871232
2007-01-24 09:09:56 51°13.883 2°55.606 7.7089 3.120409 28.62509 -2.871232
2007-01-24 09:10:01 51°13.884 2°55.605 7.7136 3.130757 28.728462 -2.871232
2007-01-24 09:10:06 51°13.885 2°55.605 7.7169 3.130757 28.728462 -2.871232
2007-01-24 09:10:11 51°13.886 2°55.604 7.718 3.127963 28.700122 -2.871232
2007-01-24 09:10:16 51°13.886 2°55.604 7.7179 3.129826 28.717436 -2.871232
2007-01-24 09:10:21 51°13.886 2°55.604 7.7191 3.127342 28.69067 -2.871232
2007-01-24 09:10:26 51°13.886 2°55.604 7.7203 3.126514 28.681486 -2.871232
2007-01-24 09:10:31 51°13.886 2°55.604 7.7257 3.119788 28.612502 -2.871232
2007-01-24 09:10:36 51°13.886 2°55.604 7.7283 3.119788 28.612502 -2.871232
2007-01-24 09:10:41 51°13.886 2°55.604 7.7262 3.111821 28.530177 -2.871232
2007-01-24 09:10:46 51°13.886 2°55.604 7.7255 3.134275 28.757042 -2.871232
2007-01-24 09:10:51 51°13.887 2°55.604 7.7257 3.133447 28.747855 -2.871232
2007-01-24 09:10:56 51°13.887 2°55.604 7.7231 3.124652 28.657872 -2.871232
2007-01-24 09:11:01 51°13.888 2°55.604 7.7236 3.14007 28.812663 -2.871232
2007-01-24 09:11:06 51°13.888 2°55.603 7.726 3.14007 28.811079 -2.871232
2007-01-24 09:11:11 51°13.889 2°55.603 7.7248 3.14007 28.811079 -2.871232
2007-01-24 09:11:16 51°13.889 2°55.603 7.7232 3.146175 28.872231 -2.871232
2007-01-24 09:11:21 51°13.89 2°55.602 7.7183 3.150625 28.916593 -2.871232
2007-01-24 09:11:26 51°13.891 2°55.602 7.7137 3.152074 28.932887 -2.871232
2007-01-24 09:11:31 51°13.892 2°55.602 7.7103 3.155696 28.970449 -2.871232
2007-01-24 09:11:36 51°13.893 2°55.601 7.7104 3.152384 28.936833 -2.871232
2007-01-24 09:11:41 51°13.894 2°55.601 7.7086 3.152384 28.936833 -2.871232
2007-01-24 09:11:46 51°13.895 2°55.6 7.7053 3.153109 28.944981 -2.871232
2007-01-24 09:11:51 51°13.896 2°55.599 7.7014 3.149487 28.909807 -2.871232
2007-01-24 09:11:56 51°13.898 2°55.598 7.7006 3.149487 28.91219 -2.871232
2007-01-24 09:12:01 51°13.899 2°55.598 7.6959 3.142036 28.842121 -2.871232
2007-01-24 09:12:06 51°13.901 2°55.596 7.7029 3.142036 28.842121 -2.871232
2007-01-24 09:12:11 51°13.902 2°55.596 7.7061 3.134379 28.766788 -2.871232
2007-01-24 09:12:16 51°13.904 2°55.594 7.7009 3.135621 28.78097 -2.871232
2007-01-24 09:12:21 51°13.906 2°55.593 7.7069 3.134275 28.770483 -2.871232
2007-01-24 09:12:26 51°13.908 2°55.592 7.7137 3.117823 28.605937 -2.871232
2007-01-24 09:12:31 51°13.911 2°55.59 7.7179 3.130964 28.742413 -2.871232
2007-01-24 09:12:36 51°13.913 2°55.588 7.7215 3.133655 28.76972 -2.871232
2007-01-24 09:12:41 51°13.916 2°55.586 7.7237 3.133655 28.76972 -2.871232
2007-01-24 09:12:46 51°13.918 2°55.584 7.7229 3.133241 28.765518 -2.871232
2007-01-24 09:12:51 51°13.92 2°55.582 7.7235 3.132102 28.754756 -2.871232
2007-01-24 09:12:56 51°13.923 2°55.58 7.7208 3.145969 28.89236 -2.871232
2007-01-24 09:13:01 51°13.925 2°55.579 7.7193 3.152488 28.954593 -2.871232
2007-01-24 09:13:06 51°13.926 2°55.577 7.7187 3.154351 28.970326 -2.871232
2007-01-24 09:13:11 51°13.928 2°55.575 7.7209 3.154351 28.970326 -2.871232
2007-01-24 09:13:16 51°13.93 2°55.574 7.7176 3.147107 28.89359 -2.871232
2007-01-24 09:13:21 51°13.932 2°55.573 7.7172 3.140794 28.829518 -2.871232
2007-01-24 09:13:26 51°13.933 2°55.571 7.7171 3.137897 28.800114 -2.871232
2007-01-24 09:13:31 51°13.935 2°55.57 7.7087 3.136345 28.785155 -2.871232
2007-01-24 09:13:36 51°13.937 2°55.569 7.6992 3.136345 28.785155 -2.871232
2007-01-24 09:13:41 51°13.938 2°55.567 7.6975 3.129205 28.713506 -2.871232
2007-01-24 09:13:46 51°13.94 2°55.566 7.6921 3.126308 28.685695 -2.871232
2007-01-24 09:13:51 51°13.942 2°55.565 7.6912 3.127549 28.69829 -2.871232
2007-01-24 09:13:56 51°13.944 2°55.564 7.6868 3.116581 28.588628 -2.871232
2007-01-24 09:14:01 51°13.945 2°55.563 7.684 3.110062 28.525679 -2.871232
2007-01-24 09:14:06 51°13.947 2°55.562 7.6794 3.110062 28.525679 -2.871232
2007-01-24 09:14:11 51°13.948 2°55.56 7.6718 3.105406 28.483964 -2.871232
2007-01-24 09:14:16 51°13.95 2°55.559 7.662 3.115132 28.588874 -2.871232
2007-01-24 09:14:21 51°13.951 2°55.558 7.6558 3.114822 28.589657 -2.871232
2007-01-24 09:14:26 51°13.953 2°55.557 7.6574 3.106234 28.506466 -2.871232
2007-01-24 09:14:31 51°13.954 2°55.556 7.6505 3.102612 28.472871 -2.871232
2007-01-24 09:14:36 51°13.956 2°55.555 7.6495 3.096197 28.410163 -2.871232
2007-01-24 09:14:41 51°13.957 2°55.554 7.6451 3.096197 28.410163 -2.871232
2007-01-24 09:14:46 51°13.959 2°55.553 7.637 3.083678 28.288702 -2.871232
2007-01-24 09:14:51 51°13.96 2°55.552 7.6298 3.082953 28.287589 -2.871232
2007-01-24 09:14:56 51°13.962 2°55.551 7.6199 3.069503 28.155923 -2.871232
2007-01-24 09:15:01 51°13.963 2°55.55 7.6123 3.066916 28.135137 -2.871232
2007-01-24 09:15:06 51°13.964 2°55.549 7.6086 3.066916 28.135137 -2.871232
2007-01-24 09:15:11 51°13.966 2°55.548 7.6017 3.067848 28.148449 -2.871232
2007-01-24 09:15:16 51°13.967 2°55.547 7.5964 3.062571 28.098843 -2.871232
2007-01-24 09:15:21 51°13.968 2°55.547 7.5912 3.060088 28.079866 -2.871232
2007-01-24 09:15:26 51°13.97 2°55.545 7.5861 3.055432 28.039635 -2.871232
2007-01-24 09:15:31 51°13.972 2°55.544 7.5764 3.044362 27.933613 -2.871232
2007-01-24 09:15:36 51°13.974 2°55.542 7.5632 3.044362 27.933613 -2.871232
2007-01-24 09:15:41 51°13.977 2°55.541 7.5634 3.038776 27.883158 -2.871232
2007-01-24 09:15:46 51°13.98 2°55.538 7.5639 3.03112 27.812499 -2.871232
2007-01-24 09:15:51 51°13.984 2°55.536 7.5616 3.022016 27.725632 -2.871232
2007-01-24 09:15:56 51°13.989 2°55.532 7.5613 3.027396 27.786261 -2.871232
2007-01-24 09:16:01 51°13.994 2°55.528 7.5628 3.021189 27.731781 -2.871232
2007-01-24 09:16:06 51°13.999 2°55.524 7.5568 3.021189 27.731781 -2.871232
2007-01-24 09:16:11 51°14.005 2°55.519 7.5544 3.016844 27.696159 -2.871232
2007-01-24 09:16:16 51°14.012 2°55.514 7.5475 3.001844 27.549502 -2.871232
2007-01-24 09:16:21 51°14.019 2°55.509 7.5339 2.999878 27.532632 -2.871232
2007-01-24 09:16:26 51°14.026 2°55.503 7.5221 2.994292 27.478326 -2.871232
2007-01-24 09:16:31 51°14.034 2°55.497 7.5106 2.999051 27.527289 -2.871232
2007-01-24 09:16:36 51°14.042 2°55.49 7.5107 2.99243 27.4625 -2.871232
2007-01-24 09:16:41 51°14.051 2°55.482 7.4996 2.99243 27.4625 -2.871232
2007-01-24 09:16:46 51°14.06 2°55.475 7.5191 2.988189 27.421817 -2.871232
2007-01-24 09:16:51 51°14.07 2°55.467 7.5424 2.989534 27.4415 -2.871232
2007-01-24 09:16:56 51°14.08 2°55.459 7.5626 2.974845 27.301793 -2.871232
2007-01-24 09:17:01 51°14.091 2°55.451 7.5554 2.96388 27.201304 -2.871232
2007-01-24 09:17:06 51°14.102 2°55.442 7.5568 2.96388 27.201304 -2.871232
2007-01-24 09:17:11 51°14.113 2°55.432 7.575 2.96026 27.171408 -2.871232
2007-01-24 09:17:16 51°14.124 2°55.422 7.5852 2.958088 27.153917 -2.871232
2007-01-24 09:17:21 51°14.136 2°55.412 7.5956 2.981982 27.391497 -2.871232
2007-01-24 09:17:26 51°14.148 2°55.402 7.6082 3.000913 27.571281 -2.871232
2007-01-24 09:17:31 51°14.16 2°55.391 7.6254 2.999878 27.55089 -2.871232
2007-01-24 09:17:36 51°14.172 2°55.38 7.6298 2.999878 27.55089 -2.871232
2007-01-24 09:17:41 51°14.184 2°55.368 7.6023 2.987568 27.422347 -2.871232
2007-01-24 09:17:46 51°14.196 2°55.356 7.6063 2.958087 27.117921 -2.871232
2007-01-24 09:17:51 51°14.207 2°55.344 7.6107 2.972879 27.257035 -2.871232
2007-01-24 09:17:56 51°14.219 2°55.33 7.5869 2.972879 27.247256 -2.871232
2007-01-24 09:18:01 51°14.23 2°55.316 7.5567 3.000498 27.51461 -2.871232
2007-01-24 09:18:06 51°14.241 2°55.301 7.5431 2.991809 27.419111 -2.871232
2007-01-24 09:18:11 51°14.251 2°55.285 7.5038 2.991809 27.419111 -2.871232
2007-01-24 09:18:16 51°14.262 2°55.269 7.4743 2.981154 27.314379 -2.871232
2007-01-24 09:18:21 51°14.272 2°55.252 7.4803 2.945881 26.958778 -2.871232
2007-01-24 09:18:26 51°14.282 2°55.235 7.4993 2.904922 26.549384 -2.871232
2007-01-24 09:18:31 51°14.291 2°55.216 7.4763 2.956846 27.088161 -2.871232
2007-01-24 09:18:36 51°14.3 2°55.198 7.4487 2.956846 27.088161 -2.871232
2007-01-24 09:18:41 51°14.309 2°55.179 7.4764 2.975258 27.2909 -2.871232
2007-01-24 09:18:46 51°14.319 2°55.159 7.4862 2.942158 26.975502 -2.871232
2007-01-24 09:18:51 51°14.328 2°55.14 7.4872 2.931401 26.891265 -2.871232
2007-01-24 09:18:56 51°14.338 2°55.121 7.4956 2.930781 26.89317 -2.871232
2007-01-24 09:19:01 51°14.348 2°55.101 7.5087 2.938849 26.980805 -2.871232
2007-01-24 09:19:06 51°14.358 2°55.081 7.4842 2.938849 26.980805 -2.871232
2007-01-24 09:19:11 51°14.368 2°55.061 7.4697 2.927264 26.875431 -2.871232
2007-01-24 09:19:16 51°14.378 2°55.041 7.511 2.931919 26.922563 -2.871232
2007-01-24 09:19:21 51°14.388 2°55.02 7.539 2.903476 26.631753 -2.871232
2007-01-24 09:19:26 51°14.398 2°54.999 7.5531 2.929333 26.888932 -2.871232
2007-01-24 09:19:31 51°14.407 2°54.978 7.5695 2.973397 27.32942 -2.871232
2007-01-24 09:19:36 51°14.415 2°54.955 7.5801 3.016741 27.771008 -2.871232
2007-01-24 09:19:41 51°14.423 2°54.932 7.5732 3.016741 27.771008 -2.871232
2007-01-24 09:19:46 51°14.43 2°54.907 7.5697 3.022017 27.826948 -2.871232
2007-01-24 09:19:51 51°14.435 2°54.881 7.554 3.039812 27.997854 -2.871232
2007-01-24 09:19:56 51°14.44 2°54.855 7.5392 3.045295 28.035012 -2.871232
2007-01-24 09:20:01 51°14.444 2°54.829 7.5353 3.099717 28.574809 -2.871232
2007-01-24 09:20:06 51°14.447 2°54.801 7.5494 3.135519 28.928661 -2.871232
2007-01-24 09:20:11 51°14.449 2°54.774 7.5611 3.135519 28.928661 -2.871232
2007-01-24 09:20:16 51°14.45 2°54.747 7.5709 3.168426 29.258934 -2.871232
2007-01-24 09:20:21 51°14.451 2°54.719 7.5901 3.185916 29.439276 -2.871232
2007-01-24 09:20:26 51°14.451 2°54.691 7.6204 3.194816 29.538447 -2.871232
2007-01-24 09:20:31 51°14.45 2°54.663 7.6484 3.183639 29.433086 -2.871232
2007-01-24 09:20:36 51°14.449 2°54.635 7.6681 3.183639 29.433086 -2.871232
2007-01-24 09:20:41 51°14.446 2°54.607 7.6886 3.239424 30.003548 -2.871232
2007-01-24 09:20:46 51°14.443 2°54.578 7.713 3.257744 30.1848 -2.871232
2007-01-24 09:20:51 51°14.439 2°54.55 7.7377 3.267371 30.275214 -2.871232
2007-01-24 09:20:56 51°14.435 2°54.523 7.7466 3.296354 30.555088 -2.871232
2007-01-24 09:21:01 51°14.429 2°54.495 7.7495 3.316333 30.735716 -2.871232
2007-01-24 09:21:06 51°14.423 2°54.469 7.7078 3.316333 30.735716 -2.871232
2007-01-24 09:21:11 51°14.416 2°54.442 7.6508 3.319438 30.74469 -2.871232
2007-01-24 09:21:16 51°14.409 2°54.416 7.6458 3.342627 30.960615 -2.871232
2007-01-24 09:21:21 51°14.401 2°54.39 7.6909 3.36737 31.190721 -2.871232
2007-01-24 09:21:26 51°14.393 2°54.364 7.7311 3.359088 31.085111 -2.871232
2007-01-24 09:21:31 51°14.385 2°54.338 7.7461 3.383211 31.31809 -2.871232
2007-01-24 09:21:36 51°14.377 2°54.313 7.7517 3.332792 30.811231 -2.871232
2007-01-24 09:21:41 51°14.369 2°54.287 7.7531 3.332792 30.811231 -2.871232
2007-01-24 09:21:46 51°14.36 2°54.262 7.7849 3.357224 31.08568 -2.871232
2007-01-24 09:21:51 51°14.352 2°54.236 7.8161 3.384143 31.375159 -2.871232
2007-01-24 09:21:56 51°14.343 2°54.211 7.827 3.389113 31.408947 -2.871232
2007-01-24 09:22:01 51°14.334 2°54.185 7.8234 3.395325 31.453746 -2.871232
2007-01-24 09:22:06 51°14.325 2°54.161 7.8123 3.400605 31.489802 -2.871232
2007-01-24 09:22:11 51°14.316 2°54.136 7.8284 3.400605 31.489802 -2.871232
2007-01-24 09:22:17 51°14.305 2°54.105 7.8364 3.405264 31.526389 -2.871232
2007-01-24 09:22:22 51°14.295 2°54.08 7.8343 3.411166 31.567905 -2.871232
2007-01-24 09:22:27 51°14.286 2°54.055 7.8109 3.416136 31.595482 -2.871232
2007-01-24 09:22:32 51°14.277 2°54.03 7.7978 3.419138 31.613269 -2.871232
2007-01-24 09:22:37 51°14.268 2°54.005 7.7984 3.419138 31.613269 -2.871232
2007-01-24 09:22:42 51°14.259 2°53.979 7.7975 3.420899 31.627853 -2.871232
2007-01-24 09:22:47 51°14.249 2°53.954 7.7934 3.419138 31.603722 -2.871232
2007-01-24 09:22:52 51°14.24 2°53.929 7.7963 3.420484 31.608849 -2.871232
2007-01-24 09:22:57 51°14.231 2°53.904 7.8017 3.418413 31.58935 -2.871232
2007-01-24 09:23:02 51°14.222 2°53.878 7.8051 3.413547 31.548985 -2.871232
2007-01-24 09:23:07 51°14.212 2°53.853 7.8115 3.413547 31.548985 -2.871232
2007-01-24 09:23:12 51°14.203 2°53.827 7.8133 3.419967 31.621767 -2.871232
2007-01-24 09:23:17 51°14.194 2°53.802 7.8109 3.413961 31.563631 -2.871232
2007-01-24 09:23:22 51°14.185 2°53.776 7.8116 3.415514 31.583033 -2.871232
2007-01-24 09:23:27 51°14.175 2°53.751 7.8046 3.397705 31.399535 -2.871232
2007-01-24 09:23:32 51°14.166 2°53.725 7.7989 3.411476 31.538143 -2.871232
2007-01-24 09:23:36 51°14.159 2°53.705 7.7901 3.412408 31.545101 -2.871232
2007-01-24 09:23:41 51°14.15 2°53.679 7.7787 3.412408 31.545101 -2.871232
2007-01-24 09:23:47 51°14.139 2°53.649 7.7681 3.414168 31.559688 -2.871232
2007-01-24 09:23:52 51°14.129 2°53.624 7.7469 3.405367 31.469446 -2.871232
2007-01-24 09:23:57 51°14.12 2°53.598 7.7238 3.414893 31.567121 -2.871232
2007-01-24 09:24:02 51°14.11 2°53.573 7.7137 3.411683 31.537668 -2.871232
2007-01-24 09:24:07 51°14.101 2°53.548 7.692 3.407231 31.498932 -2.871232
2007-01-24 09:24:12 51°14.091 2°53.522 7.6692 3.407231 31.498932 -2.871232
2007-01-24 09:24:17 51°14.081 2°53.498 7.6606 3.410752 31.542838 -2.871232
2007-01-24 09:24:22 51°14.072 2°53.472 7.6659 3.401951 31.463796 -2.871232
2007-01-24 09:24:27 51°14.062 2°53.447 7.6552 3.403193 31.493857 -2.871232
2007-01-24 09:24:32 51°14.053 2°53.422 7.6269 3.400398 31.48161 -2.871232
2007-01-24 09:24:37 51°14.043 2°53.397 7.6266 3.400398 31.48161 -2.871232
2007-01-24 09:24:42 51°14.034 2°53.372 7.6221 3.396774 31.464309 -2.871232
2007-01-24 09:24:47 51°14.024 2°53.346 7.6115 3.389527 31.410608 -2.871232
2007-01-24 09:24:52 51°14.015 2°53.321 7.6181 3.390355 31.431246 -2.871232
2007-01-24 09:24:57 51°14.005 2°53.295 7.6239 3.376999 31.302576 -2.871232
2007-01-24 09:25:02 51°13.995 2°53.27 7.6305 3.365611 31.199298 -2.871232
2007-01-24 09:25:06 51°13.988 2°53.249 7.623 3.365611 31.199298 -2.871232
2007-01-24 09:25:12 51°13.977 2°53.219 7.6058 3.385075 31.414188 -2.871232
2007-01-24 09:25:17 51°13.967 2°53.193 7.6022 3.384868 31.418994 -2.871232
2007-01-24 09:25:22 51°13.957 2°53.168 7.6133 3.38228 31.401015 -2.871232
2007-01-24 09:25:27 51°13.948 2°53.143 7.6322 3.383833 31.417007 -2.871232
2007-01-24 09:25:32 51°13.938 2°53.118 7.6604 3.376379 31.338527 -2.871232
2007-01-24 09:25:37 51°13.929 2°53.092 7.641 3.361366 31.184915 -2.871232
2007-01-24 09:25:42 51°13.918 2°53.068 7.6272 3.361366 31.184915 -2.871232
2007-01-24 09:25:47 51°13.91 2°53.041 7.6112 3.37555 31.338654 -2.871232
2007-01-24 09:25:52 51°13.9 2°53.016 7.6223 3.368096 31.267962 -2.871232
2007-01-24 09:25:57 51°13.891 2°52.991 7.6315 3.378242 31.368104 -2.871232
2007-01-24 09:26:02 51°13.881 2°52.965 7.6515 3.381969 31.390883 -2.871232
2007-01-24 09:26:07 51°13.872 2°52.94 7.6876 3.381969 31.390883 -2.871232
2007-01-24 09:26:12 51°13.862 2°52.915 7.7232 3.381555 31.382289 -2.871232
2007-01-24 09:26:17 51°13.853 2°52.889 7.7236 3.375447 31.326342 -2.871232
2007-01-24 09:26:22 51°13.844 2°52.864 7.7238 3.376068 31.337926 -2.871232
2007-01-24 09:26:27 51°13.834 2°52.838 7.7267 3.37876 31.365638 -2.871232
2007-01-24 09:26:32 51°13.825 2°52.812 7.7148 3.372858 31.297112 -2.871232
2007-01-24 09:26:37 51°13.815 2°52.787 7.7302 3.372858 31.297112 -2.871232
2007-01-24 09:26:42 51°13.807 2°52.761 7.7428 3.379898 31.3488 -2.871232
2007-01-24 09:26:47 51°13.797 2°52.737 7.7535 3.390459 31.430578 -2.871232
2007-01-24 09:26:52 51°13.788 2°52.711 7.7543 3.38963 31.407345 -2.871232
2007-01-24 09:26:57 51°13.778 2°52.686 7.7839 3.385799 31.35934 -2.871232
2007-01-24 09:27:02 51°13.769 2°52.66 7.791 3.391494 31.416114 -2.871232
2007-01-24 09:27:07 51°13.759 2°52.636 7.8038 3.393047 31.428609 -2.871232
2007-01-24 09:27:12 51°13.75 2°52.61 7.807 3.393047 31.428609 -2.871232
2007-01-24 09:27:17 51°13.739 2°52.586 7.8063 3.383625 31.322342 -2.871232
2007-01-24 09:27:22 51°13.731 2°52.559 7.8074 3.375963 31.23424 -2.871232
2007-01-24 09:27:27 51°13.721 2°52.535 7.8147 3.402676 31.497205 -2.871232
2007-01-24 09:27:32 51°13.712 2°52.508 7.8212 3.4063 31.517946 -2.871232
2007-01-24 09:27:37 51°13.701 2°52.482 7.8305 3.40806 31.523014 -2.871232
2007-01-24 09:27:42 51°13.693 2°52.456 7.8348 3.40806 31.523014 -2.871232
2007-01-24 09:27:47 51°13.682 2°52.43 7.8382 3.409509 31.529224 -2.871232
2007-01-24 09:27:52 51°13.674 2°52.402 7.8418 3.410959 31.539763 -2.871232
2007-01-24 09:27:57 51°13.662 2°52.376 7.8443 3.412408 31.549434 -2.871232
2007-01-24 09:28:02 51°13.653 2°52.348 7.845 3.414582 31.565669 -2.871232
2007-01-24 09:28:07 51°13.643 2°52.321 7.8426 3.414582 31.565669 -2.871232
2007-01-24 09:28:12 51°13.633 2°52.294 7.8414 3.415514 31.568292 -2.871232
2007-01-24 09:28:17 51°13.623 2°52.266 7.8341 3.41158 31.52189 -2.871232
2007-01-24 09:28:22 51°13.613 2°52.238 7.831 3.413857 31.539181 -2.871232
2007-01-24 09:28:27 51°13.604 2°52.21 7.8271 3.415825 31.555882 -2.871232
2007-01-24 09:28:32 51°13.593 2°52.182 7.8272 3.408163 31.474771 -2.871232
2007-01-24 09:28:37 51°13.584 2°52.154 7.8221 3.408163 31.474771 -2.871232
2007-01-24 09:28:42 51°13.574 2°52.126 7.8191 3.415825 31.551553 -2.871232
2007-01-24 09:28:47 51°13.564 2°52.098 7.811 3.414064 31.535245 -2.871232
2007-01-24 09:28:52 51°13.553 2°52.07 7.8056 3.413961 31.53678 -2.871232
2007-01-24 09:28:57 51°13.544 2°52.041 7.8009 3.413754 31.537254 -2.871232
2007-01-24 09:29:02 51°13.532 2°52.014 7.7948 3.411683 31.51949 -2.871232
2007-01-24 09:29:07 51°13.523 2°51.985 7.791 3.410544 31.510411 -2.871232
2007-01-24 09:29:12 51°13.512 2°51.958 7.7909 3.410544 31.510411 -2.871232
2007-01-24 09:29:17 51°13.503 2°51.929 7.7901 3.410648 31.516663 -2.871232
2007-01-24 09:29:22 51°13.492 2°51.901 7.7969 3.407438 31.488947 -2.871232
2007-01-24 09:29:27 51°13.483 2°51.872 7.8023 3.404953 31.468657 -2.871232
2007-01-24 09:29:32 51°13.473 2°51.843 7.8112 3.40164 31.440734 -2.871232
2007-01-24 09:29:37 51°13.463 2°51.815 7.8159 3.40164 31.440734 -2.871232
2007-01-24 09:29:42 51°13.454 2°51.786 7.8227 3.4034 31.463967 -2.871232
2007-01-24 09:29:46 51°13.445 2°51.764 7.8244 3.403089 31.463375 -2.871232
2007-01-24 09:29:52 51°13.434 2°51.729 7.8344 3.404746 31.479501 -2.871232
2007-01-24 09:29:57 51°13.423 2°51.7 7.8396 3.406299 31.492836 -2.871232
2007-01-24 09:30:02 51°13.414 2°51.671 7.8426 3.40661 31.490831 -2.871232
2007-01-24 09:30:07 51°13.403 2°51.643 7.8459 3.40661 31.490831 -2.871232
2007-01-24 09:30:12 51°13.394 2°51.613 7.8453 3.405057 31.469718 -2.871232
2007-01-24 09:30:17 51°13.383 2°51.586 7.8465 3.404332 31.457104 -2.871232
2007-01-24 09:30:22 51°13.374 2°51.557 7.8455 3.404125 31.4498 -2.871232
2007-01-24 09:30:27 51°13.363 2°51.529 7.8465 3.410233 31.506362 -2.871232
2007-01-24 09:30:32 51°13.353 2°51.499 7.8403 3.412304 31.521532 -2.871232
2007-01-24 09:30:37 51°13.343 2°51.471 7.8335 3.412097 31.515085 -2.871232
2007-01-24 09:30:42 51°13.333 2°51.442 7.8295 3.412097 31.515085 -2.871232
2007-01-24 09:30:47 51°13.323 2°51.414 7.83 3.412822 31.519918 -2.871232
2007-01-24 09:30:52 51°13.314 2°51.385 7.8165 3.411062 31.500154 -2.871232
2007-01-24 09:30:57 51°13.302 2°51.358 7.7994 3.412822 31.517324 -2.871232
2007-01-24 09:31:02 51°13.293 2°51.328 7.7729 3.41334 31.524358 -2.871232
2007-01-24 09:31:07 51°13.281 2°51.301 7.7931 3.413133 31.525695 -2.871232
2007-01-24 09:31:12 51°13.272 2°51.272 7.7703 3.413133 31.525695 -2.871232
2007-01-24 09:31:17 51°13.262 2°51.244 7.7875 3.415307 31.551442 -2.871232
2007-01-24 09:31:22 51°13.252 2°51.215 7.8134 3.414582 31.550074 -2.871232
2007-01-24 09:31:27 51°13.243 2°51.186 7.8336 3.414168 31.555355 -2.871232
2007-01-24 09:31:32 51°13.233 2°51.157 7.8426 3.408681 31.514665 -2.871232
2007-01-24 09:31:37 51°13.223 2°51.128 7.8433 3.408681 31.514665 -2.871232
2007-01-24 09:31:42 51°13.213 2°51.1 7.8601 3.405989 31.493976 -2.871232
2007-01-24 09:31:47 51°13.204 2°51.07 7.8571 3.40806 31.523014 -2.871232
2007-01-24 09:31:52 51°13.194 2°51.042 7.8546 3.410441 31.542251 -2.871232
2007-01-24 09:31:57 51°13.184 2°51.014 7.8554 3.415929 31.585547 -2.871232
2007-01-24 09:32:02 51°13.174 2°50.985 7.8453 3.417067 31.582485 -2.871232
2007-01-24 09:32:06 51°13.166 2°50.962 7.8195 3.417067 31.582485 -2.871232
2007-01-24 09:32:12 51°13.154 2°50.928 7.7982 3.419863 31.601611 -2.871232
2007-01-24 09:32:17 51°13.143 2°50.9 7.787 3.423383 31.627293 -2.871232